Time,TemperatureF,DewpointF,PressureIn,WindDirection,WindDirectionDegrees,WindSpeedMPH,WindSpeedGustMPH,Humidity,HourlyPrecipIn,Conditions,Clouds,dailyrainin,SoftwareType,DateUTC
2013-03-03 00:01:00,57.2,56.6,30.10,SW,223,6.7,9.2,98,0.00,CLR,,0.00,WeatherDisplay:10.37,2013-03-03 08:01:00,
2013-03-03 00:03:00,57.2,56.6,30.10,SSW,212,7.2,9.0,98,0.00,CLR,,0.00,WeatherDisplay:10.37,2013-03-03 08:03:00,
2013-03-03 00:04:00,57.2,56.6,30.10,SW,217,7.4,8.1,98,0.00,CLR,,0.00,WeatherDisplay:10.37,2013-03-03 08:04:00,
2013-03-03 00:06:00,57.2,56.6,30.10,SW,215,6.5,10.4,98,0.00,CLR,,0.00,WeatherDisplay:10.37,2013-03-03 08:06:00,
2013-03-03 00:08:00,57.1,56.5,30.10,SW,232,6.1,8.1,98,0.00,CLR,,0.00,WeatherDisplay:10.37,2013-03-03 08:08:00,
2013-03-03 00:09:00,57.1,56.8,30.10,SW,230,5.7,8.1,99,0.00,CLR,,0.00,WeatherDisplay:10.37,2013-03-03 08:09:00,
2013-03-03 00:11:00,57.1,56.8,30.10,SW,214,6.4,8.1,99,0.00,CLR,,0.00,WeatherDisplay:10.37,2013-03-03 08:11:00,
2013-03-03 00:14:00,57.0,56.7,30.10,SW,216,6.0,8.1,99,0.00,CLR,,0.00,WeatherDisplay:10.37,2013-03-03 08:14:00,
2013-03-03 00:16:00,57.0,56.7,30.10,SW,223,4.8,7.0,99,0.00,CLR,,0.00,WeatherDisplay:10.37,2013-03-03 08:16:00,
2013-03-03 00:17:00,57.0,56.7,30.10,SW,223,4.8,7.0,99,0.00,CLR,,0.00,WeatherDisplay:10.37,2013-03-03 08:17:00,
2013-03-03 00:19:00,56.9,56.6,30.10,SSW,213,6.5,8.1,99,0.00,CLR,,0.00,WeatherDisplay:10.37,2013-03-03 08:19:00,
2013-03-03 00:22:00,56.8,56.5,30.10,SW,218,5.7,8.1,99,0.00,CLR,,0.00,WeatherDisplay:10.37,2013-03-03 08:22:00,
2013-03-03 00:24:00,56.8,56.5,30.10,SW,216,4.5,8.1,99,0.00,CLR,,0.00,WeatherDisplay:10.37,2013-03-03 08:24:00,
2013-03-03 00:27:00,56.8,56.5,30.10,SW,218,4.2,5.0,99,0.00,CLR,,0.00,WeatherDisplay:10.37,2013-03-03 08:27:00,
2013-03-03 00:29:00,56.7,56.4,30.10,SW,217,4.7,5.8,99,0.00,CLR,,0.00,WeatherDisplay:10.37,2013-03-03 08:29:00,
2013-03-03 00:32:00,56.7,56.4,30.10,SW,217,4.9,6.9,99,0.00,CLR,,0.00,WeatherDisplay:10.37,2013-03-03 08:32:00,
2013-03-03 00:34:00,56.7,56.4,30.10,SW,217,4.5,5.8,99,0.00,CLR,,0.00,WeatherDisplay:10.37,2013-03-03 08:34:00,
2013-03-03 00:37:00,56.6,56.3,30.09,SW,218,3.6,5.8,99,0.00,CLR,,0.00,WeatherDisplay:10.37,2013-03-03 08:37:00,
2013-03-03 00:39:00,56.6,56.3,30.09,SW,218,3.2,3.5,99,0.00,CLR,,0.00,WeatherDisplay:10.37,2013-03-03 08:39:00,
2013-03-03 00:42:00,56.6,56.3,30.09,SW,218,1.5,2.3,99,0.00,CLR,,0.00,WeatherDisplay:10.37,2013-03-03 08:42:00,
2013-03-03 00:44:00,56.5,56.2,30.09,SW,218,0.0,0.0,99,0.00,CLR,,0.00,WeatherDisplay:10.37,2013-03-03 08:44:00,
2013-03-03 00:45:00,56.5,56.2,30.09,SW,218,0.0,0.0,99,0.00,CLR,,0.00,WeatherDisplay:10.37,2013-03-03 08:45:00,
2013-03-03 00:47:00,56.5,56.2,30.09,SW,218,0.0,0.0,99,0.00,CLR,,0.00,WeatherDisplay:10.37,2013-03-03 08:47:00,
2013-03-03 00:49:00,56.4,56.1,30.10,SW,218,0.0,0.0,99,0.00,CLR,,0.00,WeatherDisplay:10.37,2013-03-03 08:49:00,
2013-03-03 00:50:00,56.4,56.1,30.10,SW,218,0.0,0.0,99,0.00,CLR,,0.00,WeatherDisplay:10.37,2013-03-03 08:50:00,
2013-03-03 00:52:00,56.3,56.0,30.10,SW,218,0.1,3.5,99,0.00,CLR,,0.00,WeatherDisplay:10.37,2013-03-03 08:52:00,
2013-03-03 00:54:00,56.2,55.6,30.10,SW,218,0.0,0.0,98,0.00,CLR,,0.00,WeatherDisplay:10.37,2013-03-03 08:54:00,
2013-03-03 00:55:00,56.3,55.7,30.09,SW,218,0.0,2.0,98,0.00,CLR,,0.00,WeatherDisplay:10.37,2013-03-03 08:55:00,
2013-03-03 00:57:00,56.2,55.9,30.10,SW,218,0.0,0.0,99,0.00,CLR,,0.00,WeatherDisplay:10.37,2013-03-03 08:57:00,
2013-03-03 00:58:00,56.2,55.6,30.10,SW,218,0.0,0.0,98,0.00,CLR,,0.00,WeatherDisplay:10.37,2013-03-03 08:58:00,
2013-03-03 01:00:00,56.2,55.6,30.09,SW,218,0.0,0.0,98,0.00,CLR,,0.00,WeatherDisplay:10.37,2013-03-03 09:00:00,
2013-03-03 01:02:00,56.1,55.5,30.09,SW,218,0.0,0.0,98,0.00,CLR,,0.00,WeatherDisplay:10.37,2013-03-03 09:02:00,
2013-03-03 01:03:00,56.1,55.5,30.09,SW,218,0.0,0.0,98,0.00,CLR,,0.00,WeatherDisplay:10.37,2013-03-03 09:03:00,
2013-03-03 01:05:00,56.1,55.5,30.09,SW,218,0.0,0.0,98,0.00,CLR,,0.00,WeatherDisplay:10.37,2013-03-03 09:05:00,
2013-03-03 01:08:00,56.0,55.4,30.10,SW,218,0.0,0.0,98,0.00,CLR,,0.00,WeatherDisplay:10.37,2013-03-03 09:08:00,
2013-03-03 01:10:00,55.9,55.3,30.10,SW,218,0.0,0.0,98,0.00,CLR,,0.00,WeatherDisplay:10.37,2013-03-03 09:10:00,
2013-03-03 01:11:00,55.9,55.3,30.10,SW,218,0.0,0.0,98,0.00,CLR,,0.00,WeatherDisplay:10.37,2013-03-03 09:11:00,
2013-03-03 01:13:00,55.9,55.3,30.09,SW,218,0.0,0.0,98,0.00,CLR,,0.00,WeatherDisplay:10.37,2013-03-03 09:13:00,
2013-03-03 01:15:00,55.8,55.5,30.10,SW,218,0.0,0.0,99,0.00,CLR,,0.00,WeatherDisplay:10.37,2013-03-03 09:15:00,
2013-03-03 01:16:00,55.8,55.5,30.10,SW,218,0.0,0.0,99,0.00,CLR,,0.00,WeatherDisplay:10.37,2013-03-03 09:16:00,
2013-03-03 01:18:00,55.8,55.5,30.10,SW,218,0.0,0.0,99,0.00,CLR,,0.00,WeatherDisplay:10.37,2013-03-03 09:18:00,
2013-03-03 01:20:00,55.7,55.1,30.10,SW,218,0.0,0.0,98,0.00,CLR,,0.00,WeatherDisplay:10.37,2013-03-03 09:20:00,
2013-03-03 01:21:00,55.7,55.4,30.10,SW,218,0.0,0.0,99,0.00,CLR,,0.00,WeatherDisplay:10.37,2013-03-03 09:21:00,
2013-03-03 01:23:00,55.7,55.1,30.10,SW,218,0.0,0.0,98,0.00,CLR,,0.00,WeatherDisplay:10.37,2013-03-03 09:23:00,
2013-03-03 01:25:00,55.7,55.4,30.11,SW,218,0.0,0.0,99,0.00,CLR,,0.00,WeatherDisplay:10.37,2013-03-03 09:25:00,
2013-03-03 01:26:00,55.6,55.0,30.10,SW,218,0.0,0.0,98,0.00,CLR,,0.00,WeatherDisplay:10.37,2013-03-03 09:26:00,
2013-03-03 01:28:00,55.5,54.9,30.10,SW,218,0.0,0.0,98,0.00,CLR,,0.00,WeatherDisplay:10.37,2013-03-03 09:28:00,
2013-03-03 01:30:00,55.6,55.0,30.10,SW,218,0.0,0.0,98,0.00,CLR,,0.00,WeatherDisplay:10.37,2013-03-03 09:30:00,
2013-03-03 01:32:00,55.5,54.9,30.10,SW,218,0.0,0.0,98,0.00,CLR,,0.00,WeatherDisplay:10.37,2013-03-03 09:32:00,
2013-03-03 01:33:00,55.5,54.9,30.10,SW,217,0.0,0.0,98,0.00,CLR,,0.00,WeatherDisplay:10.37,2013-03-03 09:33:00,
2013-03-03 01:35:00,55.4,54.8,30.10,SW,218,0.0,0.0,98,0.00,CLR,,0.00,WeatherDisplay:10.37,2013-03-03 09:35:00,
2013-03-03 01:37:00,55.4,54.8,30.09,SW,218,0.0,0.0,98,0.00,CLR,,0.00,WeatherDisplay:10.37,2013-03-03 09:37:00,
2013-03-03 01:38:00,55.3,54.7,30.09,SW,218,0.0,0.0,98,0.00,CLR,,0.00,WeatherDisplay:10.37,2013-03-03 09:38:00,
2013-03-03 01:39:00,55.3,54.7,30.09,SW,218,0.0,0.0,98,0.00,CLR,,0.00,WeatherDisplay:10.37,2013-03-03 09:39:00,
2013-03-03 01:40:00,55.3,54.7,30.09,SW,218,0.0,0.0,98,0.00,CLR,,0.00,WeatherDisplay:10.37,2013-03-03 09:40:00,
2013-03-03 01:42:00,55.3,54.7,30.10,SW,218,0.0,0.0,98,0.00,CLR,,0.00,WeatherDisplay:10.37,2013-03-03 09:42:00,
2013-03-03 01:44:00,55.2,54.6,30.09,SW,218,0.0,0.0,98,0.00,CLR,,0.00,WeatherDisplay:10.37,2013-03-03 09:44:00,
2013-03-03 01:45:00,55.2,54.6,30.09,SW,218,0.0,0.0,98,0.00,CLR,,0.00,WeatherDisplay:10.37,2013-03-03 09:45:00,
2013-03-03 01:47:00,55.2,54.6,30.09,SW,218,0.0,0.0,98,0.00,CLR,,0.00,WeatherDisplay:10.37,2013-03-03 09:47:00,
2013-03-03 01:49:00,55.1,54.5,30.09,SW,218,0.0,0.0,98,0.00,CLR,,0.00,WeatherDisplay:10.37,2013-03-03 09:49:00,
2013-03-03 01:51:00,55.1,54.5,30.08,SW,218,0.0,0.0,98,0.00,CLR,,0.00,WeatherDisplay:10.37,2013-03-03 09:51:00,
2013-03-03 01:52:00,55.1,54.8,30.08,SW,218,0.0,0.0,99,0.00,CLR,,0.00,WeatherDisplay:10.37,2013-03-03 09:52:00,
2013-03-03 01:54:00,55.0,54.7,30.08,SW,218,0.0,0.0,99,0.00,CLR,,0.00,WeatherDisplay:10.37,2013-03-03 09:54:00,
2013-03-03 01:56:00,55.1,54.5,30.08,SW,218,0.0,0.0,98,0.00,CLR,,0.00,WeatherDisplay:10.37,2013-03-03 09:56:00,
2013-03-03 01:57:00,55.0,54.4,30.08,SW,218,0.0,0.0,98,0.00,CLR,,0.00,WeatherDisplay:10.37,2013-03-03 09:57:00,
2013-03-03 01:59:00,55.0,54.4,30.09,SW,218,0.0,0.0,98,0.00,CLR,,0.00,WeatherDisplay:10.37,2013-03-03 09:59:00,
2013-03-03 02:01:00,55.0,54.4,30.09,SW,218,0.0,0.0,98,0.00,CLR,,0.00,WeatherDisplay:10.37,2013-03-03 10:01:00,
2013-03-03 02:03:00,54.9,54.3,30.09,SW,218,0.0,0.0,98,0.00,CLR,,0.00,WeatherDisplay:10.37,2013-03-03 10:03:00,
2013-03-03 02:04:00,54.9,54.6,30.09,SW,218,0.0,0.0,99,0.00,CLR,,0.00,WeatherDisplay:10.37,2013-03-03 10:04:00,
2013-03-03 02:06:00,54.9,54.6,30.08,SW,218,0.0,0.0,99,0.00,CLR,,0.00,WeatherDisplay:10.37,2013-03-03 10:06:00,
2013-03-03 02:08:00,54.9,54.6,30.08,SW,218,0.0,0.0,99,0.00,CLR,,0.00,WeatherDisplay:10.37,2013-03-03 10:08:00,
2013-03-03 02:09:00,54.9,54.6,30.08,SW,218,0.0,0.0,99,0.00,CLR,,0.00,WeatherDisplay:10.37,2013-03-03 10:09:00,
2013-03-03 02:11:00,54.8,54.5,30.09,SW,218,0.0,0.0,99,0.00,CLR,,0.00,WeatherDisplay:10.37,2013-03-03 10:11:00,
2013-03-03 02:14:00,54.8,54.5,30.09,SW,218,0.0,0.0,99,0.00,CLR,,0.00,WeatherDisplay:10.37,2013-03-03 10:14:00,
2013-03-03 02:16:00,54.9,54.6,30.09,SW,218,0.2,3.5,99,0.00,CLR,,0.00,WeatherDisplay:10.37,2013-03-03 10:16:00,
2013-03-03 02:19:00,54.9,54.9,30.09,SW,218,0.0,0.0,100,0.00,CLR,,0.00,WeatherDisplay:10.37,2013-03-03 10:19:00,
2013-03-03 02:21:00,54.9,54.9,30.09,SW,218,0.0,0.0,100,0.00,CLR,,0.00,WeatherDisplay:10.37,2013-03-03 10:21:00,
2013-03-03 02:24:00,54.9,54.6,30.10,SW,218,0.0,0.0,99,0.00,CLR,,0.00,WeatherDisplay:10.37,2013-03-03 10:24:00,
2013-03-03 02:25:00,54.9,54.6,30.10,SW,218,0.0,0.0,99,0.00,CLR,,0.00,WeatherDisplay:10.37,2013-03-03 10:25:00,
2013-03-03 02:27:00,54.9,54.9,30.10,SW,218,1.7,3.5,100,0.00,CLR,,0.00,WeatherDisplay:10.37,2013-03-03 10:27:00,
2013-03-03 02:29:00,55.0,55.0,30.10,SW,218,1.2,3.5,100,0.00,CLR,,0.00,WeatherDisplay:10.37,2013-03-03 10:29:00,
2013-03-03 02:30:00,55.0,55.0,30.10,SW,218,2.0,4.0,100,0.00,CLR,,0.00,WeatherDisplay:10.37,2013-03-03 10:30:00,
2013-03-03 02:32:00,55.0,55.0,30.10,SW,218,5.1,5.8,100,0.00,CLR,,0.00,WeatherDisplay:10.37,2013-03-03 10:32:00,
2013-03-03 02:34:00,55.1,55.1,30.09,SW,218,1.1,4.6,100,0.00,CLR,,0.00,WeatherDisplay:10.37,2013-03-03 10:34:00,
2013-03-03 02:35:00,55.1,55.1,30.09,SW,218,2.0,6.0,100,0.00,CLR,,0.00,WeatherDisplay:10.37,2013-03-03 10:35:00,
2013-03-03 02:36:00,55.2,55.2,30.09,SW,218,2.1,3.5,100,0.00,CLR,,0.00,WeatherDisplay:10.37,2013-03-03 10:36:00,
2013-03-03 02:37:00,55.3,55.3,30.08,SW,218,0.8,2.3,100,0.00,CLR,,0.00,WeatherDisplay:10.37,2013-03-03 10:37:00,
2013-03-03 02:39:00,55.5,55.5,30.08,SW,218,1.5,3.5,100,0.00,CLR,,0.00,WeatherDisplay:10.37,2013-03-03 10:39:00,
2013-03-03 02:40:00,55.6,55.6,30.08,SW,218,2.5,3.5,100,0.00,CLR,,0.00,WeatherDisplay:10.37,2013-03-03 10:40:00,
2013-03-03 02:41:00,55.6,55.6,30.08,SW,218,2.5,3.5,100,0.00,CLR,,0.00,WeatherDisplay:10.37,2013-03-03 10:41:00,
2013-03-03 02:42:00,55.7,55.7,30.06,SW,216,3.7,4.6,100,0.00,CLR,,0.00,WeatherDisplay:10.37,2013-03-03 10:42:00,
2013-03-03 02:44:00,55.9,55.9,30.04,NE,52,5.0,6.0,100,0.00,CLR,,0.00,WeatherDisplay:10.37,2013-03-03 10:44:00,
2013-03-03 02:45:00,55.9,55.9,30.04,NE,41,5.6,6.9,100,0.00,CLR,,0.00,WeatherDisplay:10.37,2013-03-03 10:45:00,
2013-03-03 02:46:00,56.0,56.0,30.03,NE,52,4.9,6.9,100,0.00,CLR,,0.00,WeatherDisplay:10.37,2013-03-03 10:46:00,
2013-03-03 02:47:00,56.0,56.0,30.03,NE,49,5.2,10.4,100,0.00,CLR,,0.00,WeatherDisplay:10.37,2013-03-03 10:47:00,
2013-03-03 02:49:00,55.9,55.9,30.03,East,84,1.7,6.9,100,0.00,CLR,,0.00,WeatherDisplay:10.37,2013-03-03 10:49:00,
2013-03-03 02:50:00,55.9,55.9,30.04,East,84,0.4,3.5,100,0.00,CLR,,0.00,WeatherDisplay:10.37,2013-03-03 10:50:00,
2013-03-03 02:51:00,55.9,55.9,30.05,East,84,0.0,0.0,100,0.00,CLR,,0.00,WeatherDisplay:10.37,2013-03-03 10:51:00,
2013-03-03 02:53:00,55.9,55.9,30.06,NW,314,2.0,5.0,100,0.00,CLR,,0.00,WeatherDisplay:10.37,2013-03-03 10:53:00,
2013-03-03 02:55:00,55.9,55.9,30.05,NE,46,2.0,5.0,100,0.00,CLR,,0.00,WeatherDisplay:10.37,2013-03-03 10:55:00,
2013-03-03 02:56:00,55.9,55.9,30.04,NNE,24,4.9,5.8,100,0.00,CLR,,0.00,WeatherDisplay:10.37,2013-03-03 10:56:00,
2013-03-03 02:58:00,55.8,55.8,30.03,North,6,5.7,8.1,100,0.00,CLR,,0.00,WeatherDisplay:10.37,2013-03-03 10:58:00,
2013-03-03 03:00:00,55.8,55.8,30.03,NNE,20,4.5,8.1,100,0.00,CLR,,0.00,WeatherDisplay:10.37,2013-03-03 11:00:00,
2013-03-03 03:01:00,55.9,55.9,30.02,NE,50,5.2,9.2,100,0.00,CLR,,0.00,WeatherDisplay:10.37,2013-03-03 11:01:00,
2013-03-03 03:03:00,55.9,55.9,30.01,NE,46,5.3,9.2,100,0.00,CLR,,0.00,WeatherDisplay:10.37,2013-03-03 11:03:00,
2013-03-03 03:05:00,55.9,55.9,30.01,NNE,29,5.7,11.0,100,0.00,CLR,,0.00,WeatherDisplay:10.37,2013-03-03 11:05:00,
2013-03-03 03:06:00,55.8,55.8,30.01,NE,36,7.2,11.5,100,0.00,CLR,,0.00,WeatherDisplay:10.37,2013-03-03 11:06:00,
2013-03-03 03:08:00,55.7,55.7,30.00,NE,41,6.0,10.4,100,0.00,CLR,,0.00,WeatherDisplay:10.37,2013-03-03 11:08:00,
2013-03-03 03:10:00,55.7,55.7,30.01,NE,46,4.3,6.0,100,0.00,CLR,,0.00,WeatherDisplay:10.37,2013-03-03 11:10:00,
2013-03-03 03:11:00,55.7,55.7,30.01,NNE,23,4.8,5.8,100,0.00,CLR,,0.00,WeatherDisplay:10.37,2013-03-03 11:11:00,
2013-03-03 03:13:00,55.5,55.5,30.01,NNE,20,5.2,11.5,100,0.00,CLR,,0.00,WeatherDisplay:10.37,2013-03-03 11:13:00,
2013-03-03 03:15:00,55.5,55.5,30.01,NNE,20,5.6,9.2,100,0.00,CLR,,0.00,WeatherDisplay:10.37,2013-03-03 11:15:00,
2013-03-03 03:16:00,55.5,55.5,30.00,NNE,21,5.6,7.0,100,0.00,CLR,,0.00,WeatherDisplay:10.37,2013-03-03 11:16:00,
2013-03-03 03:18:00,55.6,55.6,30.00,NNE,21,6.0,10.4,100,0.00,CLR,,0.00,WeatherDisplay:10.37,2013-03-03 11:18:00,
2013-03-03 03:20:00,55.6,55.6,30.00,NNE,23,5.6,10.4,100,0.00,CLR,,0.00,WeatherDisplay:10.37,2013-03-03 11:20:00,
2013-03-03 03:21:00,55.6,55.6,30.00,NNE,33,7.6,12.7,100,0.00,CLR,,0.00,WeatherDisplay:10.37,2013-03-03 11:21:00,
2013-03-03 03:22:00,55.6,55.6,30.00,NNE,29,5.6,11.5,100,0.00,CLR,,0.00,WeatherDisplay:10.37,2013-03-03 11:22:00,
2013-03-03 03:23:00,55.6,55.6,30.01,NNE,25,6.2,8.1,100,0.00,CLR,,0.00,WeatherDisplay:10.37,2013-03-03 11:23:00,
2013-03-03 03:25:00,55.6,55.6,30.01,NNE,31,4.8,8.1,100,0.00,CLR,,0.00,WeatherDisplay:10.37,2013-03-03 11:25:00,
2013-03-03 03:26:00,55.7,55.7,30.01,NNE,22,5.7,7.0,100,0.00,CLR,,0.00,WeatherDisplay:10.37,2013-03-03 11:26:00,
2013-03-03 03:27:00,55.7,55.7,30.01,NNE,23,6.0,11.5,100,0.00,CLR,,0.00,WeatherDisplay:10.37,2013-03-03 11:27:00,
2013-03-03 03:29:00,55.8,55.8,30.02,NNE,29,4.7,9.2,100,0.00,CLR,,0.00,WeatherDisplay:10.37,2013-03-03 11:29:00,
2013-03-03 03:30:00,55.8,55.8,30.02,NNE,18,6.1,8.0,100,0.00,CLR,,0.00,WeatherDisplay:10.37,2013-03-03 11:30:00,
2013-03-03 03:31:00,55.8,55.8,30.02,NNE,12,6.4,9.2,100,0.00,CLR,,0.00,WeatherDisplay:10.37,2013-03-03 11:31:00,
2013-03-03 03:32:00,55.8,55.8,30.02,NNE,25,3.6,5.8,100,0.00,CLR,,0.00,WeatherDisplay:10.37,2013-03-03 11:32:00,
2013-03-03 03:34:00,55.9,55.9,30.02,NE,34,3.1,5.8,100,0.00,CLR,,0.00,WeatherDisplay:10.37,2013-03-03 11:34:00,
2013-03-03 03:35:00,55.9,55.9,30.02,NE,43,2.7,3.5,100,0.00,CLR,,0.00,WeatherDisplay:10.37,2013-03-03 11:35:00,
2013-03-03 03:36:00,55.9,55.9,30.02,NE,48,2.8,3.5,100,0.00,CLR,,0.00,WeatherDisplay:10.37,2013-03-03 11:36:00,
2013-03-03 03:37:00,56.0,56.0,30.02,East,85,3.5,4.0,100,0.00,CLR,,0.00,WeatherDisplay:10.37,2013-03-03 11:37:00,
2013-03-03 03:39:00,55.9,55.9,30.03,ENE,63,1.6,5.8,100,0.00,CLR,,0.00,WeatherDisplay:10.37,2013-03-03 11:39:00,
2013-03-03 03:41:00,55.9,55.9,30.03,NNE,23,3.3,4.6,100,0.00,CLR,,0.00,WeatherDisplay:10.37,2013-03-03 11:41:00,
2013-03-03 03:42:00,55.9,55.9,30.02,North,355,3.4,5.0,100,0.00,CLR,,0.00,WeatherDisplay:10.37,2013-03-03 11:42:00,
2013-03-03 03:45:00,56.0,56.0,30.02,NE,35,3.0,6.0,100,0.00,CLR,,0.00,WeatherDisplay:10.37,2013-03-03 11:45:00,
2013-03-03 03:46:00,55.9,55.9,30.02,NNE,12,1.7,3.5,100,0.00,CLR,,0.00,WeatherDisplay:10.37,2013-03-03 11:46:00,
2013-03-03 03:48:00,56.0,56.0,30.02,NNE,15,2.5,4.0,100,0.00,CLR,,0.00,WeatherDisplay:10.37,2013-03-03 11:48:00,
2013-03-03 03:50:00,56.0,56.0,30.02,NNE,25,2.9,5.0,100,0.00,CLR,,0.00,WeatherDisplay:10.37,2013-03-03 11:50:00,
2013-03-03 03:51:00,55.9,55.9,30.02,NNE,24,4.5,5.8,100,0.00,CLR,,0.00,WeatherDisplay:10.37,2013-03-03 11:51:00,
2013-03-03 03:53:00,55.9,55.9,30.02,NNE,19,2.4,3.5,100,0.00,CLR,,0.00,WeatherDisplay:10.37,2013-03-03 11:53:00,
2013-03-03 03:55:00,56.0,56.0,30.02,NNE,19,2.2,3.5,100,0.00,CLR,,0.00,WeatherDisplay:10.37,2013-03-03 11:55:00,
2013-03-03 03:56:00,56.0,56.0,30.02,North,9,2.3,4.0,100,0.00,CLR,,0.00,WeatherDisplay:10.37,2013-03-03 11:56:00,
2013-03-03 03:57:00,56.0,56.0,30.02,North,9,2.2,3.5,100,0.00,CLR,,0.00,WeatherDisplay:10.37,2013-03-03 11:57:00,
2013-03-03 03:58:00,56.0,56.0,30.02,North,0,2.2,3.5,100,0.00,CLR,,0.00,WeatherDisplay:10.37,2013-03-03 11:58:00,
2013-03-03 04:00:00,56.0,56.0,30.02,North,0,1.3,2.3,100,0.00,CLR,,0.00,WeatherDisplay:10.37,2013-03-03 12:00:00,
2013-03-03 04:01:00,56.0,56.0,30.02,North,0,0.2,3.5,100,0.00,CLR,,0.00,WeatherDisplay:10.37,2013-03-03 12:01:00,
2013-03-03 04:02:00,56.0,56.0,30.03,NNE,20,0.0,0.0,100,0.00,CLR,,0.00,WeatherDisplay:10.37,2013-03-03 12:02:00,
2013-03-03 04:03:00,56.0,56.0,30.03,NNE,30,1.4,2.3,100,0.00,CLR,,0.00,WeatherDisplay:10.37,2013-03-03 12:03:00,
2013-03-03 04:05:00,56.0,56.0,30.03,NE,52,0.0,2.3,100,0.00,CLR,,0.00,WeatherDisplay:10.37,2013-03-03 12:05:00,
2013-03-03 04:06:00,56.0,56.0,30.03,SSE,151,0.0,0.0,100,0.00,CLR,,0.00,WeatherDisplay:10.37,2013-03-03 12:06:00,
2013-03-03 04:07:00,56.0,56.0,30.03,SSE,151,0.0,0.0,100,0.00,CLR,,0.00,WeatherDisplay:10.37,2013-03-03 12:07:00,
2013-03-03 04:08:00,56.0,56.0,30.03,SSE,151,0.0,0.0,100,0.00,CLR,,0.00,WeatherDisplay:10.37,2013-03-03 12:08:00,
2013-03-03 04:10:00,56.0,56.0,30.03,SSE,151,0.0,0.0,100,0.00,CLR,,0.00,WeatherDisplay:10.37,2013-03-03 12:10:00,
2013-03-03 04:12:00,56.1,56.1,30.04,SSE,151,0.6,1.0,100,0.00,CLR,,0.00,WeatherDisplay:10.37,2013-03-03 12:12:00,
2013-03-03 04:13:00,56.0,56.0,30.04,South,177,1.3,2.3,100,0.00,CLR,,0.00,WeatherDisplay:10.37,2013-03-03 12:13:00,
2013-03-03 04:15:00,56.1,56.1,30.04,South,177,1.5,2.3,100,0.00,CLR,,0.00,WeatherDisplay:10.37,2013-03-03 12:15:00,
2013-03-03 04:17:00,56.0,56.0,30.05,SSW,197,2.0,3.5,100,0.00,CLR,,0.00,WeatherDisplay:10.37,2013-03-03 12:17:00,
2013-03-03 04:18:00,56.0,56.0,30.05,South,191,1.4,3.5,100,0.00,CLR,,0.00,WeatherDisplay:10.37,2013-03-03 12:18:00,
2013-03-03 04:21:00,56.1,56.1,30.04,SSW,205,1.5,3.5,100,0.00,CLR,,0.00,WeatherDisplay:10.37,2013-03-03 12:21:00,
2013-03-03 04:22:00,56.1,56.1,30.04,SSW,205,2.2,3.5,100,0.00,CLR,,0.00,WeatherDisplay:10.37,2013-03-03 12:22:00,
2013-03-03 04:23:00,56.0,56.0,30.05,SSW,205,2.9,4.0,100,0.00,CLR,,0.00,WeatherDisplay:10.37,2013-03-03 12:23:00,
2013-03-03 04:26:00,56.0,56.0,30.05,SSW,204,2.4,3.5,100,0.00,CLR,,0.00,WeatherDisplay:10.37,2013-03-03 12:26:00,
2013-03-03 04:27:00,56.0,56.0,30.05,SSW,204,1.8,3.5,100,0.00,CLR,,0.00,WeatherDisplay:10.37,2013-03-03 12:27:00,
2013-03-03 04:28:00,56.1,56.1,30.05,SSW,204,1.7,2.3,100,0.00,CLR,,0.00,WeatherDisplay:10.37,2013-03-03 12:28:00,
2013-03-03 04:29:00,56.0,56.0,30.05,SSW,204,1.8,3.5,100,0.00,CLR,,0.00,WeatherDisplay:10.37,2013-03-03 12:29:00,
2013-03-03 04:31:00,56.0,56.0,30.05,SSW,204,0.3,2.3,100,0.00,CLR,,0.00,WeatherDisplay:10.37,2013-03-03 12:31:00,
2013-03-03 04:32:00,56.0,56.0,30.05,SSW,204,1.3,3.5,100,0.00,CLR,,0.00,WeatherDisplay:10.37,2013-03-03 12:32:00,
2013-03-03 04:33:00,56.0,56.0,30.04,SSW,204,2.4,3.5,100,0.00,CLR,,0.00,WeatherDisplay:10.37,2013-03-03 12:33:00,
2013-03-03 04:34:00,56.0,56.0,30.05,SSW,204,2.6,3.5,100,0.00,CLR,,0.00,WeatherDisplay:10.37,2013-03-03 12:34:00,
2013-03-03 04:36:00,55.9,55.9,30.05,SSW,204,0.7,2.3,100,0.00,CLR,,0.00,WeatherDisplay:10.37,2013-03-03 12:36:00,
2013-03-03 04:37:00,55.9,55.9,30.05,SSW,204,0.0,0.0,100,0.00,CLR,,0.00,WeatherDisplay:10.37,2013-03-03 12:37:00,
2013-03-03 04:38:00,55.9,55.9,30.04,SSW,204,0.0,0.0,100,0.00,CLR,,0.00,WeatherDisplay:10.37,2013-03-03 12:38:00,
2013-03-03 04:39:00,55.9,55.9,30.05,SSW,204,0.0,0.0,100,0.00,CLR,,0.00,WeatherDisplay:10.37,2013-03-03 12:39:00,
2013-03-03 04:41:00,55.9,55.9,30.05,SSW,204,0.0,0.0,100,0.00,CLR,,0.00,WeatherDisplay:10.37,2013-03-03 12:41:00,
2013-03-03 04:42:00,55.9,55.9,30.05,SSW,204,0.0,0.0,100,0.00,CLR,,0.00,WeatherDisplay:10.37,2013-03-03 12:42:00,
2013-03-03 04:43:00,55.9,55.9,30.05,SSW,204,0.0,0.0,100,0.00,CLR,,0.00,WeatherDisplay:10.37,2013-03-03 12:43:00,
2013-03-03 04:44:00,55.8,55.8,30.05,SSW,204,0.0,0.0,100,0.00,CLR,,0.00,WeatherDisplay:10.37,2013-03-03 12:44:00,
2013-03-03 04:46:00,55.8,55.8,30.04,SSW,204,0.0,0.0,100,0.00,CLR,,0.00,WeatherDisplay:10.37,2013-03-03 12:46:00,
2013-03-03 04:47:00,55.8,55.8,30.04,SSW,204,0.0,0.0,100,0.00,CLR,,0.00,WeatherDisplay:10.37,2013-03-03 12:47:00,
2013-03-03 04:48:00,55.7,55.7,30.04,SSW,204,0.0,0.0,100,0.00,CLR,,0.00,WeatherDisplay:10.37,2013-03-03 12:48:00,
2013-03-03 04:49:00,55.7,55.7,30.04,SSW,204,0.0,0.0,100,0.00,CLR,,0.00,WeatherDisplay:10.37,2013-03-03 12:49:00,
2013-03-03 04:51:00,55.7,55.7,30.04,SSW,204,0.0,0.0,100,0.00,CLR,,0.00,WeatherDisplay:10.37,2013-03-03 12:51:00,
2013-03-03 04:52:00,55.7,55.7,30.04,SSW,204,0.0,0.0,100,0.00,CLR,,0.00,WeatherDisplay:10.37,2013-03-03 12:52:00,
2013-03-03 04:53:00,55.7,55.7,30.04,SSW,204,0.0,0.0,100,0.00,CLR,,0.00,WeatherDisplay:10.37,2013-03-03 12:53:00,
2013-03-03 04:54:00,55.6,55.6,30.04,SSW,204,0.0,0.0,100,0.00,CLR,,0.00,WeatherDisplay:10.37,2013-03-03 12:54:00,
2013-03-03 04:56:00,55.6,55.6,30.04,SSW,204,0.0,0.0,100,0.00,CLR,,0.00,WeatherDisplay:10.37,2013-03-03 12:56:00,
2013-03-03 04:58:00,55.6,55.6,30.05,SSW,204,0.0,0.0,100,0.00,CLR,,0.00,WeatherDisplay:10.37,2013-03-03 12:58:00,
2013-03-03 04:59:00,55.6,55.6,30.05,SSW,204,0.0,0.0,100,0.00,CLR,,0.00,WeatherDisplay:10.37,2013-03-03 12:59:00,
2013-03-03 05:01:00,55.6,55.6,30.05,SSW,204,0.0,0.0,100,0.00,CLR,,0.00,WeatherDisplay:10.37,2013-03-03 13:01:00,
2013-03-03 05:03:00,55.6,55.6,30.05,SSW,204,0.0,0.0,100,0.00,CLR,,0.00,WeatherDisplay:10.37,2013-03-03 13:03:00,
2013-03-03 05:04:00,55.5,55.5,30.05,SSW,204,0.0,0.0,100,0.00,CLR,,0.00,WeatherDisplay:10.37,2013-03-03 13:04:00,
2013-03-03 05:06:00,55.5,55.5,30.05,SSW,204,0.0,0.0,100,0.00,CLR,,0.00,WeatherDisplay:10.37,2013-03-03 13:06:00,
2013-03-03 05:08:00,55.5,55.5,30.05,SSW,204,0.0,0.0,100,0.00,CLR,,0.00,WeatherDisplay:10.37,2013-03-03 13:08:00,
2013-03-03 05:10:00,55.4,55.4,30.05,SSW,204,0.0,0.0,100,0.00,CLR,,0.00,WeatherDisplay:10.37,2013-03-03 13:10:00,
2013-03-03 05:11:00,55.4,55.4,30.05,SSW,204,0.0,0.0,100,0.00,CLR,,0.00,WeatherDisplay:10.37,2013-03-03 13:11:00,
2013-03-03 05:13:00,55.4,55.4,30.05,SSW,204,0.0,0.0,100,0.00,CLR,,0.00,WeatherDisplay:10.37,2013-03-03 13:13:00,
2013-03-03 05:15:00,55.4,55.4,30.06,SSW,204,0.0,0.0,100,0.00,CLR,,0.00,WeatherDisplay:10.37,2013-03-03 13:15:00,
2013-03-03 05:17:00,55.3,55.3,30.05,SSW,204,0.0,0.0,100,0.00,CLR,,0.00,WeatherDisplay:10.37,2013-03-03 13:17:00,
2013-03-03 05:18:00,55.3,55.3,30.05,SSW,204,0.0,0.0,100,0.00,CLR,,0.00,WeatherDisplay:10.37,2013-03-03 13:18:00,
2013-03-03 05:19:00,55.3,55.3,30.06,SSW,204,0.0,0.0,100,0.00,CLR,,0.00,WeatherDisplay:10.37,2013-03-03 13:19:00,
2013-03-03 05:20:00,55.3,55.3,30.05,SSW,204,0.0,0.0,100,0.00,CLR,,0.00,WeatherDisplay:10.37,2013-03-03 13:20:00,
2013-03-03 05:23:00,55.3,55.3,30.06,SSW,204,2.5,3.5,100,0.00,CLR,,0.00,WeatherDisplay:10.37,2013-03-03 13:23:00,
2013-03-03 05:24:00,55.3,55.3,30.06,SSW,204,2.3,3.5,100,0.00,CLR,,0.00,WeatherDisplay:10.37,2013-03-03 13:24:00,
2013-03-03 05:25:00,55.2,55.2,30.06,SSW,204,2.5,4.0,100,0.00,CLR,,0.00,WeatherDisplay:10.37,2013-03-03 13:25:00,
2013-03-03 05:28:00,55.2,55.2,30.06,SSW,204,2.7,3.5,100,0.00,CLR,,0.00,WeatherDisplay:10.37,2013-03-03 13:28:00,
2013-03-03 05:29:00,55.2,55.2,30.06,SSW,204,2.8,3.5,100,0.00,CLR,,0.00,WeatherDisplay:10.37,2013-03-03 13:29:00,
2013-03-03 05:30:00,55.3,55.3,30.06,SSW,204,2.7,3.5,100,0.00,CLR,,0.00,WeatherDisplay:10.37,2013-03-03 13:30:00,
2013-03-03 05:33:00,55.3,55.3,30.06,SSW,204,2.1,3.5,100,0.00,CLR,,0.00,WeatherDisplay:10.37,2013-03-03 13:33:00,
2013-03-03 05:34:00,55.3,55.3,30.06,SSW,204,1.0,2.3,100,0.00,CLR,,0.00,WeatherDisplay:10.37,2013-03-03 13:34:00,
2013-03-03 05:35:00,55.3,55.3,30.06,SSW,204,0.0,0.0,100,0.00,CLR,,0.00,WeatherDisplay:10.37,2013-03-03 13:35:00,
2013-03-03 05:38:00,55.3,55.3,30.06,SSW,204,0.0,0.0,100,0.00,CLR,,0.00,WeatherDisplay:10.37,2013-03-03 13:38:00,
2013-03-03 05:39:00,55.3,55.3,30.06,SSW,204,0.0,0.0,100,0.00,CLR,,0.00,WeatherDisplay:10.37,2013-03-03 13:39:00,
2013-03-03 05:40:00,55.3,55.3,30.06,SSW,204,0.1,1.0,100,0.00,CLR,,0.00,WeatherDisplay:10.37,2013-03-03 13:40:00,
2013-03-03 05:43:00,55.4,55.4,30.06,SSW,204,0.0,0.0,100,0.00,CLR,,0.00,WeatherDisplay:10.37,2013-03-03 13:43:00,
2013-03-03 05:44:00,55.4,55.4,30.06,SSW,204,0.0,0.0,100,0.00,CLR,,0.00,WeatherDisplay:10.37,2013-03-03 13:44:00,
2013-03-03 05:45:00,55.4,55.4,30.06,SSW,204,0.7,2.0,100,0.00,CLR,,0.00,WeatherDisplay:10.37,2013-03-03 13:45:00,
2013-03-03 05:48:00,55.5,55.5,30.06,SSW,204,1.6,3.5,100,0.00,CLR,,0.00,WeatherDisplay:10.37,2013-03-03 13:48:00,
2013-03-03 05:49:00,55.5,55.5,30.06,SW,228,2.3,3.5,100,0.00,CLR,,0.00,WeatherDisplay:10.37,2013-03-03 13:49:00,
2013-03-03 05:50:00,55.5,55.5,30.06,SW,228,2.4,3.5,100,0.00,CLR,,0.00,WeatherDisplay:10.37,2013-03-03 13:50:00,
2013-03-03 05:53:00,55.6,55.6,30.06,SW,229,0.0,0.0,100,0.00,CLR,,0.00,WeatherDisplay:10.37,2013-03-03 13:53:00,
2013-03-03 05:54:00,55.5,55.5,30.06,SW,229,0.0,0.0,100,0.00,CLR,,0.00,WeatherDisplay:10.37,2013-03-03 13:54:00,
2013-03-03 05:55:00,55.5,55.5,30.06,SW,224,0.0,3.0,100,0.00,CLR,,0.00,WeatherDisplay:10.37,2013-03-03 13:55:00,
2013-03-03 05:56:00,55.5,55.5,30.06,SW,229,0.0,0.0,100,0.00,CLR,,0.00,WeatherDisplay:10.37,2013-03-03 13:56:00,
2013-03-03 05:58:00,55.6,55.6,30.06,SW,229,0.0,0.0,100,0.00,CLR,,0.00,WeatherDisplay:10.37,2013-03-03 13:58:00,
2013-03-03 05:59:00,55.5,55.5,30.06,SW,229,0.0,0.0,100,0.00,CLR,,0.00,WeatherDisplay:10.37,2013-03-03 13:59:00,
2013-03-03 06:00:00,55.5,55.5,30.06,SW,228,0.0,0.0,100,0.00,CLR,,0.00,WeatherDisplay:10.37,2013-03-03 14:00:00,
2013-03-03 06:01:00,55.6,55.6,30.06,SW,229,0.0,0.0,100,0.00,CLR,,0.00,WeatherDisplay:10.37,2013-03-03 14:01:00,
2013-03-03 06:03:00,55.5,55.5,30.07,SW,228,0.0,0.0,100,0.00,CLR,,0.00,WeatherDisplay:10.37,2013-03-03 14:03:00,
2013-03-03 06:05:00,55.5,55.5,30.07,SW,228,0.0,0.0,100,0.00,CLR,,0.00,WeatherDisplay:10.37,2013-03-03 14:05:00,
2013-03-03 06:06:00,55.5,55.5,30.07,SW,229,0.0,0.0,100,0.00,CLR,,0.00,WeatherDisplay:10.37,2013-03-03 14:06:00,
2013-03-03 06:08:00,55.5,55.5,30.07,SW,229,0.0,0.0,100,0.00,CLR,,0.00,WeatherDisplay:10.37,2013-03-03 14:08:00,
2013-03-03 06:10:00,55.5,55.5,30.07,SW,229,0.0,0.0,100,0.00,CLR,,0.00,WeatherDisplay:10.37,2013-03-03 14:10:00,
2013-03-03 06:11:00,55.5,55.5,30.07,SW,228,0.0,0.0,100,0.00,CLR,,0.00,WeatherDisplay:10.37,2013-03-03 14:11:00,
2013-03-03 06:13:00,55.6,55.6,30.07,SW,229,0.0,0.0,100,0.00,CLR,,0.00,WeatherDisplay:10.37,2013-03-03 14:13:00,
2013-03-03 06:15:00,55.6,55.6,30.07,SW,229,0.0,0.0,100,0.00,CLR,,0.00,WeatherDisplay:10.37,2013-03-03 14:15:00,
2013-03-03 06:16:00,55.6,55.6,30.07,SW,229,0.0,0.0,100,0.00,CLR,,0.00,WeatherDisplay:10.37,2013-03-03 14:16:00,
2013-03-03 06:19:00,55.6,55.6,30.07,SW,229,0.0,0.0,100,0.00,CLR,,0.00,WeatherDisplay:10.37,2013-03-03 14:19:00,
2013-03-03 06:20:00,55.6,55.6,30.07,SW,229,0.0,0.0,100,0.00,CLR,,0.00,WeatherDisplay:10.37,2013-03-03 14:20:00,
2013-03-03 06:21:00,55.7,55.7,30.07,SW,229,0.0,0.0,100,0.00,CLR,,0.00,WeatherDisplay:10.37,2013-03-03 14:21:00,
2013-03-03 06:24:00,55.6,55.6,30.07,SW,229,0.0,0.0,100,0.00,CLR,,0.00,WeatherDisplay:10.37,2013-03-03 14:24:00,
2013-03-03 06:25:00,55.7,55.7,30.07,SW,229,0.0,0.0,100,0.00,CLR,,0.00,WeatherDisplay:10.37,2013-03-03 14:25:00,
2013-03-03 06:26:00,55.6,55.6,30.07,SW,229,0.0,0.0,100,0.00,CLR,,0.00,WeatherDisplay:10.37,2013-03-03 14:26:00,
2013-03-03 06:29:00,55.7,55.7,30.08,SW,228,0.0,0.0,100,0.00,CLR,,0.00,WeatherDisplay:10.37,2013-03-03 14:29:00,
2013-03-03 06:30:00,55.7,55.7,30.07,SW,229,0.0,0.0,100,0.00,CLR,,0.00,WeatherDisplay:10.37,2013-03-03 14:30:00,
2013-03-03 06:31:00,55.7,55.7,30.07,SW,229,0.0,0.0,100,0.00,CLR,,0.00,WeatherDisplay:10.37,2013-03-03 14:31:00,
2013-03-03 06:32:00,55.7,55.7,30.07,SW,229,0.0,0.0,100,0.00,CLR,,0.00,WeatherDisplay:10.37,2013-03-03 14:32:00,
2013-03-03 06:34:00,55.7,55.7,30.07,SW,229,0.0,0.0,100,0.00,CLR,,0.00,WeatherDisplay:10.37,2013-03-03 14:34:00,
2013-03-03 06:35:00,55.7,55.7,30.06,SW,228,1.2,3.5,100,0.00,CLR,,0.00,WeatherDisplay:10.37,2013-03-03 14:35:00,
2013-03-03 06:36:00,55.6,55.6,30.06,SE,138,3.0,5.0,100,0.00,CLR,,0.00,WeatherDisplay:10.37,2013-03-03 14:36:00,
2013-03-03 06:37:00,55.6,55.6,30.07,ESE,119,3.4,4.6,100,0.00,CLR,,0.00,WeatherDisplay:10.37,2013-03-03 14:37:00,
2013-03-03 06:39:00,55.6,55.6,30.06,ESE,109,3.2,4.6,100,0.00,CLR,,0.00,WeatherDisplay:10.37,2013-03-03 14:39:00,
2013-03-03 06:40:00,55.6,55.6,30.06,ESE,109,2.2,4.6,100,0.00,CLR,,0.00,WeatherDisplay:10.37,2013-03-03 14:40:00,
2013-03-03 06:41:00,55.6,55.6,30.06,NE,36,2.6,3.5,100,0.00,CLR,,0.00,WeatherDisplay:10.37,2013-03-03 14:41:00,
2013-03-03 06:42:00,55.6,55.6,30.07,NE,36,1.8,4.6,100,0.00,CLR,,0.00,WeatherDisplay:10.37,2013-03-03 14:42:00,
2013-03-03 06:44:00,55.6,55.6,30.07,NE,56,2.4,3.5,100,0.00,CLR,,0.00,WeatherDisplay:10.37,2013-03-03 14:44:00,
2013-03-03 06:45:00,55.6,55.6,30.07,East,89,2.7,3.5,100,0.00,CLR,,0.00,WeatherDisplay:10.37,2013-03-03 14:45:00,
2013-03-03 06:46:00,55.5,55.5,30.06,ENE,71,2.4,3.5,100,0.00,CLR,,0.00,WeatherDisplay:10.37,2013-03-03 14:46:00,
2013-03-03 06:47:00,55.6,55.6,30.06,NE,52,2.7,3.5,100,0.00,CLR,,0.00,WeatherDisplay:10.37,2013-03-03 14:47:00,
2013-03-03 06:49:00,55.5,55.5,30.07,NE,55,2.2,3.5,100,0.00,CLR,,0.00,WeatherDisplay:10.37,2013-03-03 14:49:00,
2013-03-03 06:51:00,55.5,55.5,30.06,NE,42,2.2,3.5,100,0.00,CLR,,0.00,WeatherDisplay:10.37,2013-03-03 14:51:00,
2013-03-03 06:52:00,55.5,55.5,30.06,NE,42,1.4,3.5,100,0.00,CLR,,0.00,WeatherDisplay:10.37,2013-03-03 14:52:00,
2013-03-03 06:55:00,55.5,55.5,30.07,NE,43,1.7,3.5,100,0.00,CLR,,0.00,WeatherDisplay:10.37,2013-03-03 14:55:00,
2013-03-03 06:56:00,55.5,55.5,30.07,NE,43,1.4,2.3,100,0.00,CLR,,0.00,WeatherDisplay:10.37,2013-03-03 14:56:00,
2013-03-03 06:57:00,55.5,55.5,30.07,NE,43,1.3,2.3,100,0.00,CLR,,0.00,WeatherDisplay:10.37,2013-03-03 14:57:00,
2013-03-03 07:00:00,55.6,55.6,30.06,NE,44,1.6,3.5,100,0.00,CLR,,0.00,WeatherDisplay:10.37,2013-03-03 15:00:00,
2013-03-03 07:01:00,55.6,55.6,30.06,NE,44,1.6,2.3,100,0.00,CLR,,0.00,WeatherDisplay:10.37,2013-03-03 15:01:00,
2013-03-03 07:02:00,55.6,55.6,30.07,NE,44,2.5,3.5,100,0.00,CLR,,0.00,WeatherDisplay:10.37,2013-03-03 15:02:00,
2013-03-03 07:03:00,55.6,55.6,30.07,NE,44,2.1,3.5,100,0.00,CLR,,0.00,WeatherDisplay:10.37,2013-03-03 15:03:00,
2013-03-03 07:05:00,55.6,55.6,30.07,NE,53,1.7,3.5,100,0.00,CLR,,0.00,WeatherDisplay:10.37,2013-03-03 15:05:00,
2013-03-03 07:06:00,55.6,55.6,30.07,NE,53,1.3,3.5,100,0.00,CLR,,0.00,WeatherDisplay:10.37,2013-03-03 15:06:00,
2013-03-03 07:07:00,55.6,55.6,30.08,NNE,28,1.2,4.0,100,0.00,CLR,,0.00,WeatherDisplay:10.37,2013-03-03 15:07:00,
2013-03-03 07:08:00,55.6,55.6,30.07,NE,41,3.2,4.6,100,0.00,CLR,,0.00,WeatherDisplay:10.37,2013-03-03 15:08:00,
2013-03-03 07:10:00,55.6,55.6,30.07,North,10,2.9,3.5,100,0.00,CLR,,0.00,WeatherDisplay:10.37,2013-03-03 15:10:00,
2013-03-03 07:11:00,55.7,55.7,30.07,North,10,1.7,3.5,100,0.00,CLR,,0.00,WeatherDisplay:10.37,2013-03-03 15:11:00,
2013-03-03 07:12:00,55.7,55.7,30.07,North,10,1.8,3.5,100,0.00,CLR,,0.00,WeatherDisplay:10.37,2013-03-03 15:12:00,
2013-03-03 07:13:00,55.7,55.7,30.07,North,11,1.9,3.5,100,0.00,CLR,,0.00,WeatherDisplay:10.37,2013-03-03 15:13:00,
2013-03-03 07:15:00,55.7,55.7,30.08,NNE,18,2.6,4.6,100,0.00,CLR,,0.00,WeatherDisplay:10.37,2013-03-03 15:15:00,
2013-03-03 07:16:00,55.7,55.7,30.08,NNE,18,0.2,3.5,100,0.00,CLR,,0.00,WeatherDisplay:10.37,2013-03-03 15:16:00,
2013-03-03 07:18:00,55.7,55.7,30.09,NNE,22,2.0,2.0,100,0.00,,,0.00,Wunderground v.1.15,2013-03-03 15:18:00,
2013-03-03 07:22:00,55.9,55.9,30.07,ENE,59,0.0,4.0,100,0.00,CLR,,0.00,WeatherDisplay:10.37,2013-03-03 15:22:00,
2013-03-03 07:23:00,55.9,55.9,30.07,ENE,59,0.0,3.5,100,0.00,CLR,,0.00,WeatherDisplay:10.37,2013-03-03 15:23:00,
2013-03-03 07:27:00,56.0,56.0,30.08,ENE,71,1.6,3.5,100,0.00,CLR,,0.00,WeatherDisplay:10.37,2013-03-03 15:27:00,
2013-03-03 07:28:00,56.0,56.0,30.08,ENE,71,1.5,3.5,100,0.00,CLR,,0.00,WeatherDisplay:10.37,2013-03-03 15:28:00,
2013-03-03 07:32:00,56.1,56.1,30.08,ENE,65,1.8,3.5,100,0.00,CLR,,0.00,WeatherDisplay:10.37,2013-03-03 15:32:00,
2013-03-03 07:33:00,56.1,56.1,30.08,ENE,65,1.9,3.5,100,0.00,CLR,,0.00,WeatherDisplay:10.37,2013-03-03 15:33:00,
2013-03-03 07:38:00,56.2,56.2,30.08,NE,48,1.1,2.3,100,0.00,CLR,,0.00,WeatherDisplay:10.37,2013-03-03 15:38:00,
2013-03-03 07:43:00,56.3,56.3,30.08,NE,48,0.0,0.0,100,0.00,CLR,,0.00,WeatherDisplay:10.37,2013-03-03 15:43:00,
2013-03-03 07:44:00,56.3,56.3,30.08,NE,48,0.0,0.0,100,0.00,CLR,,0.00,WeatherDisplay:10.37,2013-03-03 15:44:00,
2013-03-03 07:48:00,56.4,56.4,30.08,NE,48,0.0,0.0,100,0.00,CLR,,0.00,WeatherDisplay:10.37,2013-03-03 15:48:00,
2013-03-03 07:49:00,56.4,56.4,30.08,NE,48,0.0,0.0,100,0.00,CLR,,0.00,WeatherDisplay:10.37,2013-03-03 15:49:00,
2013-03-03 07:53:00,56.5,56.5,30.08,NE,48,0.0,0.0,100,0.00,CLR,,0.00,WeatherDisplay:10.37,2013-03-03 15:53:00,
2013-03-03 07:54:00,56.5,56.5,30.08,NE,48,0.0,0.0,100,0.00,CLR,,0.00,WeatherDisplay:10.37,2013-03-03 15:54:00,
2013-03-03 07:58:00,56.6,56.6,30.08,NE,48,0.0,0.0,100,0.00,CLR,,0.00,WeatherDisplay:10.37,2013-03-03 15:58:00,
2013-03-03 07:59:00,56.6,56.6,30.08,NE,48,0.0,0.0,100,0.00,CLR,,0.00,WeatherDisplay:10.37,2013-03-03 15:59:00,
2013-03-03 08:03:00,56.7,56.7,30.08,NE,48,0.0,0.0,100,0.00,CLR,,0.00,WeatherDisplay:10.37,2013-03-03 16:03:00,
2013-03-03 08:04:00,56.7,56.7,30.08,NE,48,0.0,0.0,100,0.00,CLR,,0.00,WeatherDisplay:10.37,2013-03-03 16:04:00,
2013-03-03 08:08:00,56.8,56.8,30.08,NE,48,0.0,0.0,100,0.00,CLR,,0.00,WeatherDisplay:10.37,2013-03-03 16:08:00,
2013-03-03 08:09:00,56.8,56.8,30.08,NE,48,0.0,0.0,100,0.00,CLR,,0.00,WeatherDisplay:10.37,2013-03-03 16:09:00,
2013-03-03 08:13:00,56.9,56.9,30.08,NE,48,0.0,0.0,100,0.00,CLR,,0.00,WeatherDisplay:10.37,2013-03-03 16:13:00,
2013-03-03 08:14:00,57.0,57.0,30.08,NE,48,0.0,0.0,100,0.00,CLR,,0.00,WeatherDisplay:10.37,2013-03-03 16:14:00,
2013-03-03 08:15:00,57.0,57.0,30.08,NE,48,0.0,0.0,100,0.00,CLR,,0.00,WeatherDisplay:10.37,2013-03-03 16:15:00,
2013-03-03 08:18:00,57.1,57.1,30.08,NE,48,0.0,0.0,100,0.00,CLR,,0.00,WeatherDisplay:10.37,2013-03-03 16:18:00,
2013-03-03 08:19:00,57.2,57.2,30.08,NE,48,0.0,0.0,100,0.00,CLR,,0.00,WeatherDisplay:10.37,2013-03-03 16:19:00,
2013-03-03 08:20:00,57.2,57.2,30.08,NE,48,0.0,0.0,100,0.00,CLR,,0.00,WeatherDisplay:10.37,2013-03-03 16:20:00,
2013-03-03 08:23:00,57.4,57.4,30.07,NE,48,0.0,0.0,100,0.00,CLR,,0.00,WeatherDisplay:10.37,2013-03-03 16:23:00,
2013-03-03 08:24:00,57.5,57.5,30.07,NE,48,0.0,0.0,100,0.00,CLR,,0.00,WeatherDisplay:10.37,2013-03-03 16:24:00,
2013-03-03 08:25:00,57.4,57.4,30.07,NE,48,0.0,0.0,100,0.00,CLR,,0.00,WeatherDisplay:10.37,2013-03-03 16:25:00,
2013-03-03 08:28:00,57.7,57.7,30.07,NE,48,0.0,0.0,100,0.00,CLR,,0.00,WeatherDisplay:10.37,2013-03-03 16:28:00,
2013-03-03 08:29:00,57.7,57.4,30.07,NE,48,0.0,0.0,99,0.00,CLR,,0.00,WeatherDisplay:10.37,2013-03-03 16:29:00,
2013-03-03 08:30:00,57.7,57.4,30.07,NE,48,0.0,0.0,99,0.00,CLR,,0.00,WeatherDisplay:10.37,2013-03-03 16:30:00,
2013-03-03 08:34:00,57.8,57.2,30.08,NE,48,0.0,0.0,98,0.00,CLR,,0.00,WeatherDisplay:10.37,2013-03-03 16:34:00,
2013-03-03 08:35:00,57.9,57.3,30.08,NE,48,2.2,3.5,98,0.00,CLR,,0.00,WeatherDisplay:10.37,2013-03-03 16:35:00,
2013-03-03 08:39:00,58.1,57.3,30.08,East,96,2.9,3.5,97,0.01,RA,,0.01,WeatherDisplay:10.37,2013-03-03 16:39:00,
2013-03-03 08:40:00,58.1,57.3,30.07,East,96,1.1,3.5,97,0.01,RA,,0.01,WeatherDisplay:10.37,2013-03-03 16:40:00,
2013-03-03 08:41:00,58.2,57.4,30.07,East,96,0.0,0.0,97,0.01,RA,,0.01,WeatherDisplay:10.37,2013-03-03 16:41:00,
2013-03-03 08:44:00,58.4,57.3,30.08,SSW,197,0.0,0.0,96,0.01,RA,,0.01,WeatherDisplay:10.37,2013-03-03 16:44:00,
2013-03-03 08:45:00,58.5,57.4,30.08,SSW,196,0.0,1.2,96,0.01,RA,,0.01,WeatherDisplay:10.37,2013-03-03 16:45:00,
2013-03-03 08:46:00,58.5,57.4,30.08,SSW,196,0.0,0.0,96,0.01,RA,,0.01,WeatherDisplay:10.37,2013-03-03 16:46:00,
2013-03-03 08:49:00,58.6,57.5,30.08,SSW,196,0.0,0.0,96,0.01,CLR,,0.01,WeatherDisplay:10.37,2013-03-03 16:49:00,
2013-03-03 08:50:00,58.7,57.6,30.09,SSW,196,0.0,0.0,96,0.01,CLR,,0.01,WeatherDisplay:10.37,2013-03-03 16:50:00,
2013-03-03 08:51:00,58.7,57.6,30.08,SSW,201,0.0,0.0,96,0.01,CLR,,0.01,WeatherDisplay:10.37,2013-03-03 16:51:00,
2013-03-03 08:54:00,58.9,57.5,30.08,SSW,201,0.0,0.0,95,0.01,CLR,,0.01,WeatherDisplay:10.37,2013-03-03 16:54:00,
2013-03-03 08:55:00,58.9,57.5,30.08,SSW,201,0.0,0.0,95,0.01,CLR,,0.01,WeatherDisplay:10.37,2013-03-03 16:55:00,
2013-03-03 08:56:00,59.0,57.6,30.08,SSW,201,0.0,0.0,95,0.01,CLR,,0.01,WeatherDisplay:10.37,2013-03-03 16:56:00,
2013-03-03 08:59:00,59.1,57.7,30.08,SSW,201,0.0,0.0,95,0.01,CLR,,0.01,WeatherDisplay:10.37,2013-03-03 16:59:00,
2013-03-03 09:00:00,59.1,57.7,30.08,SSW,201,0.0,0.0,95,0.01,CLR,,0.01,WeatherDisplay:10.37,2013-03-03 17:00:00,
2013-03-03 09:01:00,59.2,57.8,30.08,SSW,201,0.4,3.0,95,0.01,CLR,,0.01,WeatherDisplay:10.37,2013-03-03 17:01:00,
2013-03-03 09:04:00,59.2,57.5,30.08,SSW,201,2.6,3.5,94,0.01,CLR,,0.01,WeatherDisplay:10.37,2013-03-03 17:04:00,
2013-03-03 09:05:00,59.2,57.5,30.08,SSW,201,2.5,3.5,94,0.01,CLR,,0.01,WeatherDisplay:10.37,2013-03-03 17:05:00,
2013-03-03 09:06:00,59.2,57.5,30.09,SSW,201,2.9,3.5,94,0.01,CLR,,0.01,WeatherDisplay:10.37,2013-03-03 17:06:00,
2013-03-03 09:09:00,59.3,57.3,30.09,SSW,201,3.4,4.0,93,0.01,CLR,,0.01,WeatherDisplay:10.37,2013-03-03 17:09:00,
2013-03-03 09:10:00,59.3,57.6,30.09,SSW,201,3.4,4.0,94,0.01,CLR,,0.01,WeatherDisplay:10.37,2013-03-03 17:10:00,
2013-03-03 09:11:00,59.3,57.3,30.09,SSW,201,3.1,4.0,93,0.01,CLR,,0.01,WeatherDisplay:10.37,2013-03-03 17:11:00,
2013-03-03 09:14:00,59.3,57.0,30.09,SSW,201,2.6,3.5,92,0.01,CLR,,0.01,WeatherDisplay:10.37,2013-03-03 17:14:00,
2013-03-03 09:15:00,59.3,57.0,30.09,SSW,201,2.3,3.5,92,0.01,CLR,,0.01,WeatherDisplay:10.37,2013-03-03 17:15:00,
2013-03-03 09:16:00,59.3,57.0,30.09,SSW,201,1.6,3.5,92,0.01,CLR,,0.01,WeatherDisplay:10.37,2013-03-03 17:16:00,
2013-03-03 09:19:00,59.3,57.0,30.09,SSW,201,3.0,3.5,92,0.01,CLR,,0.01,WeatherDisplay:10.37,2013-03-03 17:19:00,
2013-03-03 09:20:00,59.4,57.1,30.09,SSW,201,1.9,3.5,92,0.01,CLR,,0.01,WeatherDisplay:10.37,2013-03-03 17:20:00,
2013-03-03 09:21:00,59.3,57.0,30.09,SSW,201,2.0,3.5,92,0.01,CLR,,0.01,WeatherDisplay:10.37,2013-03-03 17:21:00,
2013-03-03 09:24:00,59.3,56.7,30.08,SSW,201,2.5,4.6,91,0.01,CLR,,0.01,WeatherDisplay:10.37,2013-03-03 17:24:00,
2013-03-03 09:25:00,59.4,56.8,30.09,SSW,201,2.1,3.5,91,0.01,CLR,,0.01,WeatherDisplay:10.37,2013-03-03 17:25:00,
2013-03-03 09:26:00,59.3,56.7,30.09,SSW,201,2.5,3.5,91,0.01,CLR,,0.01,WeatherDisplay:10.37,2013-03-03 17:26:00,
2013-03-03 09:27:00,59.3,56.4,30.09,SSW,201,2.6,3.5,90,0.01,CLR,,0.01,WeatherDisplay:10.37,2013-03-03 17:27:00,
2013-03-03 09:29:00,59.3,56.4,30.09,SSW,201,2.3,4.0,90,0.01,CLR,,0.01,WeatherDisplay:10.37,2013-03-03 17:29:00,
2013-03-03 09:30:00,59.3,56.4,30.09,SSW,201,3.1,4.6,90,0.01,CLR,,0.01,WeatherDisplay:10.37,2013-03-03 17:30:00,
2013-03-03 09:31:00,59.4,56.2,30.09,SSW,201,3.3,4.6,89,0.01,CLR,,0.01,WeatherDisplay:10.37,2013-03-03 17:31:00,
2013-03-03 09:32:00,59.4,56.2,30.09,SSW,213,3.4,4.0,89,0.01,CLR,,0.01,WeatherDisplay:10.37,2013-03-03 17:32:00,
2013-03-03 09:34:00,59.4,56.2,30.09,SW,216,3.0,3.5,89,0.01,CLR,,0.01,WeatherDisplay:10.37,2013-03-03 17:34:00,
2013-03-03 09:36:00,59.5,56.3,30.09,SW,214,4.1,5.8,89,0.01,CLR,,0.01,WeatherDisplay:10.37,2013-03-03 17:36:00,
2013-03-03 09:37:00,59.6,56.4,30.09,SW,214,3.7,4.6,89,0.00,CLR,,0.01,WeatherDisplay:10.37,2013-03-03 17:37:00,
2013-03-03 09:40:00,59.6,56.7,30.09,SW,229,4.5,6.9,90,0.00,CLR,,0.01,WeatherDisplay:10.37,2013-03-03 17:40:00,
2013-03-03 09:41:00,59.7,56.8,30.09,SW,229,5.6,6.9,90,0.00,CLR,,0.01,WeatherDisplay:10.37,2013-03-03 17:41:00,
2013-03-03 09:42:00,59.7,56.8,30.09,SW,229,5.4,6.9,90,0.00,CLR,,0.01,WeatherDisplay:10.37,2013-03-03 17:42:00,
2013-03-03 09:45:00,59.8,56.9,30.09,SW,229,5.0,6.0,90,0.00,CLR,,0.01,WeatherDisplay:10.37,2013-03-03 17:45:00,
2013-03-03 09:46:00,59.9,57.0,30.09,SW,229,5.3,6.9,90,0.00,CLR,,0.01,WeatherDisplay:10.37,2013-03-03 17:46:00,
2013-03-03 09:47:00,60.0,57.1,30.09,SW,229,6.0,8.1,90,0.00,CLR,,0.01,WeatherDisplay:10.37,2013-03-03 17:47:00,
2013-03-03 09:50:00,60.1,56.8,30.09,SW,228,4.5,5.8,89,0.00,CLR,,0.01,WeatherDisplay:10.37,2013-03-03 17:50:00,
2013-03-03 09:51:00,60.1,56.8,30.09,SW,228,5.0,8.1,89,0.00,CLR,,0.01,WeatherDisplay:10.37,2013-03-03 17:51:00,
2013-03-03 09:52:00,60.2,56.9,30.09,SW,227,5.1,7.0,89,0.00,CLR,,0.01,WeatherDisplay:10.37,2013-03-03 17:52:00,
2013-03-03 09:53:00,60.2,56.9,30.09,SW,217,5.1,9.2,89,0.00,CLR,,0.01,WeatherDisplay:10.37,2013-03-03 17:53:00,
2013-03-03 09:55:00,60.3,57.0,30.09,SW,217,4.8,6.9,89,0.00,CLR,,0.01,WeatherDisplay:10.37,2013-03-03 17:55:00,
2013-03-03 09:56:00,60.3,56.7,30.09,SW,214,3.6,8.1,88,0.00,CLR,,0.01,WeatherDisplay:10.37,2013-03-03 17:56:00,
2013-03-03 09:57:00,60.3,56.7,30.09,SW,215,3.9,7.0,88,0.00,CLR,,0.01,WeatherDisplay:10.37,2013-03-03 17:57:00,
2013-03-03 09:58:00,60.4,56.8,30.09,SW,215,5.7,6.9,88,0.00,CLR,,0.01,WeatherDisplay:10.37,2013-03-03 17:58:00,
2013-03-03 10:00:00,60.5,56.6,30.09,SW,218,7.5,10.4,87,0.00,CLR,,0.01,WeatherDisplay:10.37,2013-03-03 18:00:00,
2013-03-03 10:02:00,60.6,56.4,30.09,SW,220,7.3,10.4,86,0.00,CLR,,0.01,WeatherDisplay:10.37,2013-03-03 18:02:00,
2013-03-03 10:03:00,60.5,56.3,30.09,SW,217,7.6,9.2,86,0.00,CLR,,0.01,WeatherDisplay:10.37,2013-03-03 18:03:00,
2013-03-03 10:05:00,60.6,56.1,30.08,SW,218,5.1,9.2,85,0.00,CLR,,0.01,WeatherDisplay:10.37,2013-03-03 18:05:00,
2013-03-03 10:07:00,60.6,55.7,30.09,SW,218,6.8,9.2,84,0.00,CLR,,0.01,WeatherDisplay:10.37,2013-03-03 18:07:00,
2013-03-03 10:08:00,60.6,55.7,30.08,SW,216,5.8,8.1,84,0.00,CLR,,0.01,WeatherDisplay:10.37,2013-03-03 18:08:00,
2013-03-03 10:11:00,60.6,55.7,30.09,SW,217,6.9,9.2,84,0.00,CLR,,0.01,WeatherDisplay:10.37,2013-03-03 18:11:00,
2013-03-03 10:12:00,60.6,55.7,30.09,SW,217,5.1,6.9,84,0.00,CLR,,0.01,WeatherDisplay:10.37,2013-03-03 18:12:00,
2013-03-03 10:13:00,60.6,55.7,30.09,SW,216,4.4,6.9,84,0.00,CLR,,0.01,WeatherDisplay:10.37,2013-03-03 18:13:00,
2013-03-03 10:16:00,60.6,55.7,30.08,SW,217,5.3,6.9,84,0.00,CLR,,0.01,WeatherDisplay:10.37,2013-03-03 18:16:00,
2013-03-03 10:17:00,60.6,55.7,30.08,SW,217,5.1,7.0,84,0.00,CLR,,0.01,WeatherDisplay:10.37,2013-03-03 18:17:00,
2013-03-03 10:18:00,60.6,55.7,30.08,SW,218,4.8,8.1,84,0.00,CLR,,0.01,WeatherDisplay:10.37,2013-03-03 18:18:00,
2013-03-03 10:21:00,60.6,55.7,30.08,SW,218,5.2,6.0,84,0.00,CLR,,0.01,WeatherDisplay:10.37,2013-03-03 18:21:00,
2013-03-03 10:22:00,60.6,55.7,30.08,SW,218,5.7,8.1,84,0.00,CLR,,0.01,WeatherDisplay:10.37,2013-03-03 18:22:00,
2013-03-03 10:23:00,60.6,55.7,30.08,SW,218,5.3,8.1,84,0.00,CLR,,0.01,WeatherDisplay:10.37,2013-03-03 18:23:00,
2013-03-03 10:26:00,60.6,55.7,30.08,SW,218,4.2,8.1,84,0.00,CLR,,0.01,WeatherDisplay:10.37,2013-03-03 18:26:00,
2013-03-03 10:27:00,60.6,55.7,30.08,SW,218,5.1,6.0,84,0.00,CLR,,0.01,WeatherDisplay:10.37,2013-03-03 18:27:00,
2013-03-03 10:28:00,60.6,55.7,30.08,SW,218,5.6,6.9,84,0.00,CLR,,0.01,WeatherDisplay:10.37,2013-03-03 18:28:00,
2013-03-03 10:31:00,60.6,55.7,30.08,SW,218,1.4,3.5,84,0.00,CLR,,0.01,WeatherDisplay:10.37,2013-03-03 18:31:00,
2013-03-03 10:32:00,60.6,55.7,30.08,SW,218,2.1,3.5,84,0.00,CLR,,0.01,WeatherDisplay:10.37,2013-03-03 18:32:00,
2013-03-03 10:33:00,60.6,55.7,30.07,SW,218,1.5,4.6,84,0.00,CLR,,0.01,WeatherDisplay:10.37,2013-03-03 18:33:00,
2013-03-03 10:34:00,60.6,55.7,30.08,SW,218,1.4,4.0,84,0.00,CLR,,0.01,WeatherDisplay:10.37,2013-03-03 18:34:00,
2013-03-03 10:36:00,60.5,55.3,30.07,SW,218,2.6,3.5,83,0.00,CLR,,0.01,WeatherDisplay:10.37,2013-03-03 18:36:00,
2013-03-03 10:37:00,60.5,55.6,30.08,SW,218,2.2,3.5,84,0.00,CLR,,0.01,WeatherDisplay:10.37,2013-03-03 18:37:00,
2013-03-03 10:38:00,60.4,55.2,30.08,SW,218,0.5,3.5,83,0.00,CLR,,0.01,WeatherDisplay:10.37,2013-03-03 18:38:00,
2013-03-03 10:39:00,60.4,55.2,30.07,SW,218,1.5,3.5,83,0.00,CLR,,0.01,WeatherDisplay:10.37,2013-03-03 18:39:00,
2013-03-03 10:41:00,60.4,55.5,30.08,SW,218,4.4,5.0,84,0.00,CLR,,0.01,WeatherDisplay:10.37,2013-03-03 18:41:00,
2013-03-03 10:42:00,60.4,55.5,30.08,SW,218,4.2,4.6,84,0.00,CLR,,0.01,WeatherDisplay:10.37,2013-03-03 18:42:00,
2013-03-03 10:44:00,60.4,55.5,30.08,SW,218,1.9,5.0,84,0.00,CLR,,0.01,WeatherDisplay:10.37,2013-03-03 18:44:00,
2013-03-03 10:47:00,60.3,55.4,30.07,SW,218,2.6,5.0,84,0.00,CLR,,0.01,WeatherDisplay:10.37,2013-03-03 18:47:00,
2013-03-03 10:49:00,60.3,55.4,30.07,SW,217,4.3,6.9,84,0.00,CLR,,0.01,WeatherDisplay:10.37,2013-03-03 18:49:00,
2013-03-03 10:52:00,60.3,55.4,30.08,SW,217,3.0,3.5,84,0.00,CLR,,0.01,WeatherDisplay:10.37,2013-03-03 18:52:00,
2013-03-03 10:53:00,60.3,55.8,30.08,SW,217,0.9,2.3,85,0.00,CLR,,0.01,WeatherDisplay:10.37,2013-03-03 18:53:00,
2013-03-03 10:54:00,60.3,55.4,30.07,SW,217,3.0,6.0,84,0.00,CLR,,0.01,WeatherDisplay:10.37,2013-03-03 18:54:00,
2013-03-03 10:57:00,60.3,55.8,30.08,SW,217,4.8,6.0,85,0.00,CLR,,0.01,WeatherDisplay:10.37,2013-03-03 18:57:00,
2013-03-03 10:58:00,60.4,55.9,30.08,SW,217,4.7,6.0,85,0.00,CLR,,0.01,WeatherDisplay:10.37,2013-03-03 18:58:00,
2013-03-03 10:59:00,60.4,55.9,30.08,SW,217,5.8,8.1,85,0.00,CLR,,0.01,WeatherDisplay:10.37,2013-03-03 18:59:00,
2013-03-03 11:02:00,60.4,55.9,30.08,SW,217,4.5,5.8,85,0.00,CLR,,0.01,WeatherDisplay:10.37,2013-03-03 19:02:00,
2013-03-03 11:03:00,60.5,56.0,30.08,SW,217,4.9,5.0,85,0.00,CLR,,0.01,WeatherDisplay:10.37,2013-03-03 19:03:00,
2013-03-03 11:04:00,60.5,56.0,30.08,SW,217,4.4,5.8,85,0.00,CLR,,0.01,WeatherDisplay:10.37,2013-03-03 19:04:00,
2013-03-03 11:07:00,60.5,56.0,30.08,SW,217,1.3,3.5,85,0.00,CLR,,0.01,WeatherDisplay:10.37,2013-03-03 19:07:00,
2013-03-03 11:08:00,60.6,56.1,30.08,SW,217,1.9,3.5,85,0.00,CLR,,0.01,WeatherDisplay:10.37,2013-03-03 19:08:00,
2013-03-03 11:09:00,60.5,55.6,30.08,SW,217,3.0,5.0,84,0.00,CLR,,0.01,WeatherDisplay:10.37,2013-03-03 19:09:00,
2013-03-03 11:12:00,60.5,56.0,30.07,SW,217,2.2,3.5,85,0.00,CLR,,0.01,WeatherDisplay:10.37,2013-03-03 19:12:00,
2013-03-03 11:13:00,60.4,55.5,30.07,SW,217,1.5,3.5,84,0.00,CLR,,0.01,WeatherDisplay:10.37,2013-03-03 19:13:00,
2013-03-03 11:14:00,60.4,55.5,30.07,SW,217,2.0,3.5,84,0.00,CLR,,0.01,WeatherDisplay:10.37,2013-03-03 19:14:00,
2013-03-03 11:15:00,60.4,55.5,30.07,SW,217,2.6,4.0,84,0.00,CLR,,0.01,WeatherDisplay:10.37,2013-03-03 19:15:00,
2013-03-03 11:17:00,60.4,55.5,30.07,SW,217,3.0,5.0,84,0.00,CLR,,0.01,WeatherDisplay:10.37,2013-03-03 19:17:00,
2013-03-03 11:18:00,60.3,55.4,30.07,SW,217,3.6,4.6,84,0.00,CLR,,0.01,WeatherDisplay:10.37,2013-03-03 19:18:00,
2013-03-03 11:19:00,60.4,55.5,30.07,SW,217,2.2,5.8,84,0.00,CLR,,0.01,WeatherDisplay:10.37,2013-03-03 19:19:00,
2013-03-03 11:20:00,60.3,55.4,30.07,SW,217,2.6,3.5,84,0.00,CLR,,0.01,WeatherDisplay:10.37,2013-03-03 19:20:00,
2013-03-03 11:23:00,60.4,55.9,30.07,SW,217,3.5,4.6,85,0.00,CLR,,0.01,WeatherDisplay:10.37,2013-03-03 19:23:00,
2013-03-03 11:24:00,60.3,55.4,30.07,SW,217,3.9,4.6,84,0.00,CLR,,0.01,WeatherDisplay:10.37,2013-03-03 19:24:00,
2013-03-03 11:25:00,60.4,55.5,30.07,SW,217,3.1,4.6,84,0.00,CLR,,0.01,WeatherDisplay:10.37,2013-03-03 19:25:00,
2013-03-03 11:28:00,60.4,55.5,30.07,SW,217,3.4,4.6,84,0.00,CLR,,0.01,WeatherDisplay:10.37,2013-03-03 19:28:00,
2013-03-03 11:29:00,60.4,55.5,30.06,SW,217,2.8,3.5,84,0.00,CLR,,0.01,WeatherDisplay:10.37,2013-03-03 19:29:00,
2013-03-03 11:30:00,60.3,55.4,30.06,SW,217,3.1,3.5,84,0.00,CLR,,0.01,WeatherDisplay:10.37,2013-03-03 19:30:00,
2013-03-03 11:33:00,60.3,55.4,30.06,SW,217,3.7,4.6,84,0.00,CLR,,0.01,WeatherDisplay:10.37,2013-03-03 19:33:00,
2013-03-03 11:34:00,60.3,55.4,30.06,SW,217,3.9,5.8,84,0.00,CLR,,0.01,WeatherDisplay:10.37,2013-03-03 19:34:00,
2013-03-03 11:36:00,60.4,55.9,30.06,SW,217,3.0,4.6,85,0.00,CLR,,0.01,WeatherDisplay:10.37,2013-03-03 19:36:00,
2013-03-03 11:38:00,60.4,55.9,30.06,SW,217,5.0,5.8,85,0.00,CLR,,0.01,WeatherDisplay:10.37,2013-03-03 19:38:00,
2013-03-03 11:39:00,60.4,55.9,30.06,SW,217,3.7,4.6,85,0.00,CLR,,0.01,WeatherDisplay:10.37,2013-03-03 19:39:00,
2013-03-03 11:40:00,60.5,56.0,30.06,SW,217,2.5,3.5,85,0.00,CLR,,0.01,WeatherDisplay:10.37,2013-03-03 19:40:00,
2013-03-03 11:41:00,60.4,55.9,30.06,SW,217,4.2,6.9,85,0.00,CLR,,0.01,WeatherDisplay:10.37,2013-03-03 19:41:00,
2013-03-03 11:43:00,60.5,56.0,30.06,SW,217,1.3,3.5,85,0.00,CLR,,0.01,WeatherDisplay:10.37,2013-03-03 19:43:00,
2013-03-03 11:44:00,60.5,56.0,30.06,SW,217,2.8,4.0,85,0.00,CLR,,0.01,WeatherDisplay:10.37,2013-03-03 19:44:00,
2013-03-03 11:45:00,60.6,56.1,30.06,SW,217,5.2,7.0,85,0.00,CLR,,0.01,WeatherDisplay:10.37,2013-03-03 19:45:00,
2013-03-03 11:46:00,60.6,56.1,30.06,SW,217,5.0,6.9,85,0.00,CLR,,0.01,WeatherDisplay:10.37,2013-03-03 19:46:00,
2013-03-03 11:48:00,60.7,56.2,30.06,SW,217,5.6,6.9,85,0.00,CLR,,0.01,WeatherDisplay:10.37,2013-03-03 19:48:00,
2013-03-03 11:49:00,60.7,56.2,30.06,SW,217,5.2,5.8,85,0.00,CLR,,0.01,WeatherDisplay:10.37,2013-03-03 19:49:00,
2013-03-03 11:50:00,60.7,56.2,30.06,SW,217,6.2,8.1,85,0.00,CLR,,0.01,WeatherDisplay:10.37,2013-03-03 19:50:00,
2013-03-03 11:51:00,60.8,56.3,30.06,SW,217,5.8,9.2,85,0.00,CLR,,0.01,WeatherDisplay:10.37,2013-03-03 19:51:00,
2013-03-03 11:53:00,60.8,56.3,30.05,SW,217,5.3,6.9,85,0.00,CLR,,0.01,WeatherDisplay:10.37,2013-03-03 19:53:00,
2013-03-03 11:54:00,60.9,56.4,30.05,SW,217,4.5,6.9,85,0.00,CLR,,0.01,WeatherDisplay:10.37,2013-03-03 19:54:00,
2013-03-03 11:55:00,60.9,56.4,30.06,SW,217,4.3,5.0,85,0.00,CLR,,0.01,WeatherDisplay:10.37,2013-03-03 19:55:00,
2013-03-03 11:56:00,61.0,56.1,30.05,SW,217,3.1,4.6,84,0.00,CLR,,0.01,WeatherDisplay:10.37,2013-03-03 19:56:00,
2013-03-03 11:58:00,61.1,56.2,30.05,SW,217,3.6,5.8,84,0.00,CLR,,0.01,WeatherDisplay:10.37,2013-03-03 19:58:00,
2013-03-03 11:59:00,61.1,56.2,30.05,SW,217,4.1,4.6,84,0.00,CLR,,0.01,WeatherDisplay:10.37,2013-03-03 19:59:00,
2013-03-03 12:00:00,61.2,56.3,30.05,SW,217,3.5,5.8,84,0.00,CLR,,0.01,WeatherDisplay:10.37,2013-03-03 20:00:00,
2013-03-03 12:02:00,61.3,56.4,30.05,SW,217,3.8,4.6,84,0.00,CLR,,0.01,WeatherDisplay:10.37,2013-03-03 20:02:00,
2013-03-03 12:03:00,61.3,56.4,30.05,SW,217,6.2,8.1,84,0.00,CLR,,0.01,WeatherDisplay:10.37,2013-03-03 20:03:00,
2013-03-03 12:04:00,61.4,56.2,30.05,SW,217,5.7,9.2,83,0.00,CLR,,0.01,WeatherDisplay:10.37,2013-03-03 20:04:00,
2013-03-03 12:05:00,61.4,56.2,30.05,SW,217,5.5,9.2,83,0.00,CLR,,0.01,WeatherDisplay:10.37,2013-03-03 20:05:00,
2013-03-03 12:07:00,61.5,56.3,30.05,SW,218,7.5,9.2,83,0.00,CLR,,0.01,WeatherDisplay:10.37,2013-03-03 20:07:00,
2013-03-03 12:08:00,61.6,56.0,30.05,SW,219,6.3,8.1,82,0.00,CLR,,0.01,WeatherDisplay:10.37,2013-03-03 20:08:00,
2013-03-03 12:09:00,61.5,56.0,30.04,SW,220,6.3,6.9,82,0.00,CLR,,0.01,WeatherDisplay:10.37,2013-03-03 20:09:00,
2013-03-03 12:10:00,61.7,56.1,30.05,SW,220,5.9,8.1,82,0.00,CLR,,0.01,WeatherDisplay:10.37,2013-03-03 20:10:00,
2013-03-03 12:12:00,61.7,56.1,30.05,SW,220,5.9,8.1,82,0.00,CLR,,0.01,WeatherDisplay:10.37,2013-03-03 20:12:00,
2013-03-03 12:13:00,61.7,56.1,30.04,SW,222,5.7,8.1,82,0.00,CLR,,0.01,WeatherDisplay:10.37,2013-03-03 20:13:00,
2013-03-03 12:14:00,61.7,56.1,30.04,SW,222,5.0,6.9,82,0.00,CLR,,0.01,WeatherDisplay:10.37,2013-03-03 20:14:00,
2013-03-03 12:15:00,61.8,56.2,30.04,SW,222,5.1,5.8,82,0.00,CLR,,0.01,WeatherDisplay:10.37,2013-03-03 20:15:00,
2013-03-03 12:17:00,61.8,55.9,30.04,SW,223,5.9,8.1,81,0.00,CLR,,0.01,WeatherDisplay:10.37,2013-03-03 20:17:00,
2013-03-03 12:19:00,61.8,55.9,30.04,SW,226,7.9,10.4,81,0.00,CLR,,0.01,WeatherDisplay:10.37,2013-03-03 20:19:00,
2013-03-03 12:21:00,61.8,55.6,30.04,SW,226,5.6,7.0,80,0.00,CLR,,0.01,WeatherDisplay:10.37,2013-03-03 20:21:00,
2013-03-03 12:22:00,61.8,55.6,30.04,SW,226,6.2,8.1,80,0.00,CLR,,0.01,WeatherDisplay:10.37,2013-03-03 20:22:00,
2013-03-03 12:24:00,61.9,56.0,30.04,SW,227,6.3,8.1,81,0.00,CLR,,0.01,WeatherDisplay:10.37,2013-03-03 20:24:00,
2013-03-03 12:25:00,61.8,55.6,30.04,SW,227,6.7,8.1,80,0.00,CLR,,0.01,WeatherDisplay:10.37,2013-03-03 20:25:00,
2013-03-03 12:26:00,61.8,55.6,30.04,SW,227,6.1,8.1,80,0.00,CLR,,0.01,WeatherDisplay:10.37,2013-03-03 20:26:00,
2013-03-03 12:27:00,61.8,55.6,30.04,SW,227,5.6,6.9,80,0.00,CLR,,0.01,WeatherDisplay:10.37,2013-03-03 20:27:00,
2013-03-03 12:29:00,61.9,55.7,30.04,SW,227,5.2,6.9,80,0.00,CLR,,0.01,WeatherDisplay:10.37,2013-03-03 20:29:00,
2013-03-03 12:30:00,61.9,55.7,30.04,SW,227,5.9,8.0,80,0.00,CLR,,0.01,WeatherDisplay:10.37,2013-03-03 20:30:00,
2013-03-03 12:31:00,61.9,55.7,30.04,SW,227,6.7,8.1,80,0.00,CLR,,0.01,WeatherDisplay:10.37,2013-03-03 20:31:00,
2013-03-03 12:32:00,62.0,55.8,30.03,SW,227,5.6,8.1,80,0.00,CLR,,0.01,WeatherDisplay:10.37,2013-03-03 20:32:00,
2013-03-03 12:34:00,62.0,55.8,30.04,SW,226,5.8,8.1,80,0.00,CLR,,0.01,WeatherDisplay:10.37,2013-03-03 20:34:00,
2013-03-03 12:35:00,62.0,55.8,30.03,SW,226,6.3,8.1,80,0.00,CLR,,0.01,WeatherDisplay:10.37,2013-03-03 20:35:00,
2013-03-03 12:36:00,62.0,55.4,30.03,SW,226,6.4,9.2,79,0.00,CLR,,0.01,WeatherDisplay:10.37,2013-03-03 20:36:00,
2013-03-03 12:37:00,62.1,55.5,30.03,SW,227,6.6,8.1,79,0.00,CLR,,0.01,WeatherDisplay:10.37,2013-03-03 20:37:00,
2013-03-03 12:40:00,62.1,55.5,30.03,SW,224,7.0,9.2,79,0.00,CLR,,0.01,WeatherDisplay:10.37,2013-03-03 20:40:00,
2013-03-03 12:42:00,62.1,55.5,30.03,SW,224,7.9,9.2,79,0.00,CLR,,0.01,WeatherDisplay:10.37,2013-03-03 20:42:00,
2013-03-03 12:45:00,62.2,55.6,30.03,SW,230,7.5,10.4,79,0.00,CLR,,0.01,WeatherDisplay:10.37,2013-03-03 20:45:00,
2013-03-03 12:47:00,62.2,55.6,30.03,SW,227,7.7,10.4,79,0.00,CLR,,0.01,WeatherDisplay:10.37,2013-03-03 20:47:00,
2013-03-03 12:50:00,62.3,55.4,30.02,SW,232,8.3,11.5,78,0.00,CLR,,0.01,WeatherDisplay:10.37,2013-03-03 20:50:00,
2013-03-03 12:52:00,62.4,55.4,30.03,SW,222,7.5,10.4,78,0.00,CLR,,0.01,WeatherDisplay:10.37,2013-03-03 20:52:00,
2013-03-03 12:55:00,62.5,55.5,30.02,SW,234,7.5,11.5,78,0.00,CLR,,0.01,WeatherDisplay:10.37,2013-03-03 20:55:00,
2013-03-03 12:56:00,62.5,55.2,30.03,SW,226,8.7,11.5,77,0.00,CLR,,0.01,WeatherDisplay:10.37,2013-03-03 20:56:00,
2013-03-03 12:57:00,62.5,55.2,30.02,SW,232,10.2,11.5,77,0.00,CLR,,0.01,WeatherDisplay:10.37,2013-03-03 20:57:00,
2013-03-03 12:58:00,62.5,55.2,30.03,SW,225,8.5,11.5,77,0.00,CLR,,0.01,WeatherDisplay:10.37,2013-03-03 20:58:00,
2013-03-03 13:00:00,62.5,55.2,30.03,SW,228,8.6,12.0,77,0.00,CLR,,0.01,WeatherDisplay:10.37,2013-03-03 21:00:00,
2013-03-03 13:01:00,62.5,55.2,30.03,SW,227,10.7,15.0,77,0.00,CLR,,0.01,WeatherDisplay:10.37,2013-03-03 21:01:00,
2013-03-03 13:02:00,62.4,55.1,30.03,SW,231,9.1,12.7,77,0.00,CLR,,0.01,WeatherDisplay:10.37,2013-03-03 21:02:00,
2013-03-03 13:03:00,62.4,55.1,30.03,SW,223,10.6,12.7,77,0.00,CLR,,0.01,WeatherDisplay:10.37,2013-03-03 21:03:00,
2013-03-03 13:05:00,62.4,55.1,30.02,SW,227,8.5,11.5,77,0.00,CLR,,0.01,WeatherDisplay:10.37,2013-03-03 21:05:00,
2013-03-03 13:06:00,62.4,55.1,30.02,SW,228,9.5,11.5,77,0.00,CLR,,0.01,WeatherDisplay:10.37,2013-03-03 21:06:00,
2013-03-03 13:07:00,62.4,55.1,30.02,SW,225,7.7,11.5,77,0.00,CLR,,0.01,WeatherDisplay:10.37,2013-03-03 21:07:00,
2013-03-03 13:08:00,62.4,55.1,30.02,SW,223,8.9,13.0,77,0.00,CLR,,0.01,WeatherDisplay:10.37,2013-03-03 21:08:00,
2013-03-03 13:10:00,62.4,55.1,30.02,SW,222,10.6,12.7,77,0.00,CLR,,0.01,WeatherDisplay:10.37,2013-03-03 21:10:00,
2013-03-03 13:11:00,62.4,55.4,30.02,SW,225,10.2,12.7,78,0.00,CLR,,0.01,WeatherDisplay:10.37,2013-03-03 21:11:00,
2013-03-03 13:12:00,62.4,55.4,30.02,SW,226,8.0,11.5,78,0.00,CLR,,0.01,WeatherDisplay:10.37,2013-03-03 21:12:00,
2013-03-03 13:13:00,62.5,55.5,30.02,SW,229,8.3,11.5,78,0.00,CLR,,0.01,WeatherDisplay:10.37,2013-03-03 21:13:00,
2013-03-03 13:15:00,62.6,55.6,30.02,SW,223,8.3,9.2,78,0.00,CLR,,0.01,WeatherDisplay:10.37,2013-03-03 21:15:00,
2013-03-03 13:16:00,62.6,55.3,30.02,SW,232,8.6,10.4,77,0.00,CLR,,0.01,WeatherDisplay:10.37,2013-03-03 21:16:00,
2013-03-03 13:17:00,62.7,55.7,30.02,SW,231,8.1,11.5,78,0.00,CLR,,0.01,WeatherDisplay:10.37,2013-03-03 21:17:00,
2013-03-03 13:18:00,62.7,55.4,30.02,SW,229,7.8,11.5,77,0.00,CLR,,0.01,WeatherDisplay:10.37,2013-03-03 21:18:00,
2013-03-03 13:21:00,62.8,55.5,30.02,SW,221,9.1,11.5,77,0.00,CLR,,0.01,WeatherDisplay:10.37,2013-03-03 21:21:00,
2013-03-03 13:22:00,62.9,55.6,30.02,SW,226,10.0,11.5,77,0.00,CLR,,0.01,WeatherDisplay:10.37,2013-03-03 21:22:00,
2013-03-03 13:23:00,62.9,55.6,30.01,SW,222,10.0,11.5,77,0.00,CLR,,0.01,WeatherDisplay:10.37,2013-03-03 21:23:00,
2013-03-03 13:26:00,62.8,55.1,30.01,SW,222,10.4,12.7,76,0.00,CLR,,0.01,WeatherDisplay:10.37,2013-03-03 21:26:00,
2013-03-03 13:27:00,62.8,55.1,30.01,SW,232,8.7,11.5,76,0.00,CLR,,0.01,WeatherDisplay:10.37,2013-03-03 21:27:00,
2013-03-03 13:28:00,62.7,55.0,30.01,SW,227,8.9,11.5,76,0.00,CLR,,0.01,WeatherDisplay:10.37,2013-03-03 21:28:00,
2013-03-03 13:31:00,62.7,55.0,30.01,SW,227,7.0,10.4,76,0.00,CLR,,0.01,WeatherDisplay:10.37,2013-03-03 21:31:00,
2013-03-03 13:33:00,62.7,55.0,30.01,SW,226,9.6,11.5,76,0.00,CLR,,0.01,WeatherDisplay:10.37,2013-03-03 21:33:00,
2013-03-03 13:36:00,62.7,55.0,30.01,SW,234,7.7,9.2,76,0.00,CLR,,0.01,WeatherDisplay:10.37,2013-03-03 21:36:00,
2013-03-03 13:37:00,62.6,54.9,30.00,SW,235,9.2,11.5,76,0.00,CLR,,0.01,WeatherDisplay:10.37,2013-03-03 21:37:00,
2013-03-03 13:38:00,62.6,54.9,30.01,SW,234,7.5,10.4,76,0.00,CLR,,0.01,WeatherDisplay:10.37,2013-03-03 21:38:00,
2013-03-03 13:41:00,62.6,55.3,30.01,SW,236,8.2,10.4,77,0.00,CLR,,0.01,WeatherDisplay:10.37,2013-03-03 21:41:00,
2013-03-03 13:42:00,62.6,54.9,30.01,WSW,240,7.4,9.2,76,0.00,CLR,,0.01,WeatherDisplay:10.37,2013-03-03 21:42:00,
2013-03-03 13:43:00,62.6,54.9,30.01,SW,222,6.1,10.4,76,0.00,CLR,,0.01,WeatherDisplay:10.37,2013-03-03 21:43:00,
2013-03-03 13:44:00,62.6,54.9,30.01,SW,226,5.7,9.2,76,0.00,CLR,,0.01,WeatherDisplay:10.37,2013-03-03 21:44:00,
2013-03-03 13:46:00,62.6,54.9,30.01,SW,218,6.0,8.1,76,0.00,CLR,,0.01,WeatherDisplay:10.37,2013-03-03 21:46:00,
2013-03-03 13:48:00,62.7,55.0,30.01,SW,229,6.9,9.2,76,0.00,CLR,,0.01,WeatherDisplay:10.37,2013-03-03 21:48:00,
2013-03-03 13:49:00,62.7,55.0,30.01,WSW,252,7.0,10.4,76,0.00,CLR,,0.01,WeatherDisplay:10.37,2013-03-03 21:49:00,
2013-03-03 13:51:00,62.8,55.1,30.01,WSW,238,6.8,9.2,76,0.00,CLR,,0.01,WeatherDisplay:10.37,2013-03-03 21:51:00,
2013-03-03 13:53:00,62.9,54.9,30.01,SW,230,6.6,9.2,75,0.00,CLR,,0.01,WeatherDisplay:10.37,2013-03-03 21:53:00,
2013-03-03 13:54:00,62.9,54.9,30.00,SW,228,5.6,9.2,75,0.00,CLR,,0.01,WeatherDisplay:10.37,2013-03-03 21:54:00,
2013-03-03 13:56:00,62.9,54.9,30.01,SW,226,7.2,10.4,75,0.00,CLR,,0.01,WeatherDisplay:10.37,2013-03-03 21:56:00,
2013-03-03 13:58:00,62.9,54.9,30.01,SW,228,8.0,12.0,75,0.00,CLR,,0.01,WeatherDisplay:10.37,2013-03-03 21:58:00,
2013-03-03 13:59:00,62.9,54.5,30.01,SW,228,8.6,11.5,74,0.00,CLR,,0.01,WeatherDisplay:10.37,2013-03-03 21:59:00,
2013-03-03 14:01:00,63.0,54.9,30.01,SW,234,8.6,8.6,75,0.00,CLR,,0.01,WeatherDisplay:10.37,2013-03-03 22:01:00,
2013-03-03 14:03:00,63.0,54.9,30.01,SW,223,7.1,10.0,75,0.00,CLR,,0.01,WeatherDisplay:10.37,2013-03-03 22:03:00,
2013-03-03 14:04:00,63.0,54.6,30.01,SW,230,8.0,11.5,74,0.00,CLR,,0.01,WeatherDisplay:10.37,2013-03-03 22:04:00,
2013-03-03 14:06:00,63.0,54.6,30.01,SW,227,8.6,11.5,74,0.00,CLR,,0.01,WeatherDisplay:10.37,2013-03-03 22:06:00,
2013-03-03 14:08:00,63.0,54.6,30.01,SW,235,8.1,11.5,74,0.00,CLR,,0.01,WeatherDisplay:10.37,2013-03-03 22:08:00,
2013-03-03 14:09:00,62.9,54.5,30.01,SW,223,6.4,11.5,74,0.00,CLR,,0.01,WeatherDisplay:10.37,2013-03-03 22:09:00,
2013-03-03 14:11:00,62.9,54.5,30.01,SW,225,9.1,13.8,74,0.00,CLR,,0.01,WeatherDisplay:10.37,2013-03-03 22:11:00,
2013-03-03 14:13:00,63.0,54.6,30.01,SW,232,9.0,13.8,74,0.00,CLR,,0.01,WeatherDisplay:10.37,2013-03-03 22:13:00,
2013-03-03 14:14:00,63.0,54.6,30.01,SW,226,8.5,13.0,74,0.00,CLR,,0.01,WeatherDisplay:10.37,2013-03-03 22:14:00,
2013-03-03 14:16:00,63.0,54.9,30.01,WSW,242,8.4,11.5,75,0.00,CLR,,0.01,WeatherDisplay:10.37,2013-03-03 22:16:00,
2013-03-03 14:18:00,63.0,54.9,30.01,SW,223,7.9,8.1,75,0.00,CLR,,0.01,WeatherDisplay:10.37,2013-03-03 22:18:00,
2013-03-03 14:19:00,62.9,54.9,30.00,SW,230,9.8,12.7,75,0.00,CLR,,0.01,WeatherDisplay:10.37,2013-03-03 22:19:00,
2013-03-03 14:22:00,62.9,54.9,30.01,SW,225,9.7,12.7,75,0.00,CLR,,0.01,WeatherDisplay:10.37,2013-03-03 22:22:00,
2013-03-03 14:23:00,62.9,54.9,30.01,SW,227,10.0,12.7,75,0.00,CLR,,0.01,WeatherDisplay:10.37,2013-03-03 22:23:00,
2013-03-03 14:24:00,62.9,54.9,30.01,SW,222,8.3,12.7,75,0.00,CLR,,0.01,WeatherDisplay:10.37,2013-03-03 22:24:00,
2013-03-03 14:25:00,62.9,54.9,30.01,SW,229,8.2,11.5,75,0.00,CLR,,0.01,WeatherDisplay:10.37,2013-03-03 22:25:00,
2013-03-03 14:27:00,62.8,54.8,30.01,SW,228,8.6,11.5,75,0.00,CLR,,0.01,WeatherDisplay:10.37,2013-03-03 22:27:00,
2013-03-03 14:28:00,62.8,54.8,30.01,SW,228,10.3,13.8,75,0.00,CLR,,0.01,WeatherDisplay:10.37,2013-03-03 22:28:00,
2013-03-03 14:29:00,62.8,54.8,30.01,SW,220,8.9,12.7,75,0.00,CLR,,0.01,WeatherDisplay:10.37,2013-03-03 22:29:00,
2013-03-03 14:30:00,62.8,54.8,30.01,SW,231,8.4,10.4,75,0.00,CLR,,0.01,WeatherDisplay:10.37,2013-03-03 22:30:00,
2013-03-03 14:32:00,62.8,54.8,30.01,SW,229,9.2,13.0,75,0.00,CLR,,0.01,WeatherDisplay:10.37,2013-03-03 22:32:00,
2013-03-03 14:33:00,62.8,54.8,30.01,SW,231,10.3,13.8,75,0.00,CLR,,0.01,WeatherDisplay:10.37,2013-03-03 22:33:00,
2013-03-03 14:34:00,62.8,54.8,30.01,SW,234,10.5,16.1,75,0.00,CLR,,0.01,WeatherDisplay:10.37,2013-03-03 22:34:00,
2013-03-03 14:35:00,62.8,54.8,30.01,SW,224,10.9,13.8,75,0.00,CLR,,0.01,WeatherDisplay:10.37,2013-03-03 22:35:00,
2013-03-03 14:37:00,62.8,54.8,30.01,SW,223,11.0,15.0,75,0.00,CLR,,0.01,WeatherDisplay:10.37,2013-03-03 22:37:00,
2013-03-03 14:38:00,62.7,54.7,30.00,SW,236,10.6,16.1,75,0.00,CLR,,0.01,WeatherDisplay:10.37,2013-03-03 22:38:00,
2013-03-03 14:40:00,62.8,55.1,30.00,SW,233,12.9,15.0,76,0.00,CLR,,0.01,WeatherDisplay:10.37,2013-03-03 22:40:00,
2013-03-03 14:42:00,62.7,54.7,30.01,SW,228,13.7,15.0,75,0.00,CLR,,0.01,WeatherDisplay:10.37,2013-03-03 22:42:00,
2013-03-03 14:43:00,62.6,54.6,30.00,SW,216,11.3,16.1,75,0.00,CLR,,0.01,WeatherDisplay:10.37,2013-03-03 22:43:00,
2013-03-03 14:45:00,62.6,54.9,30.00,SW,236,10.9,12.7,76,0.00,CLR,,0.01,WeatherDisplay:10.37,2013-03-03 22:45:00,
2013-03-03 14:48:00,62.5,54.8,30.00,SW,235,11.1,13.8,76,0.00,CLR,,0.01,WeatherDisplay:10.37,2013-03-03 22:48:00,
2013-03-03 14:50:00,62.4,55.1,30.00,SW,223,11.7,13.8,77,0.00,CLR,,0.01,WeatherDisplay:10.37,2013-03-03 22:50:00,
2013-03-03 14:53:00,62.4,55.1,30.00,SW,229,9.8,13.8,77,0.00,CLR,,0.01,WeatherDisplay:10.37,2013-03-03 22:53:00,
2013-03-03 14:55:00,62.3,55.0,30.01,SW,227,10.1,11.5,77,0.00,CLR,,0.01,WeatherDisplay:10.37,2013-03-03 22:55:00,
2013-03-03 14:58:00,62.3,55.0,30.00,SW,222,9.7,12.7,77,0.00,CLR,,0.01,WeatherDisplay:10.37,2013-03-03 22:58:00,
2013-03-03 14:59:00,62.3,55.0,30.00,SW,230,9.3,12.7,77,0.00,CLR,,0.01,WeatherDisplay:10.37,2013-03-03 22:59:00,
2013-03-03 15:00:00,62.3,55.4,30.00,SW,234,12.0,16.1,78,0.00,CLR,,0.01,WeatherDisplay:10.37,2013-03-03 23:00:00,
2013-03-03 15:03:00,62.2,55.3,30.00,SW,233,12.2,15.0,78,0.00,CLR,,0.01,WeatherDisplay:10.37,2013-03-03 23:03:00,
2013-03-03 15:04:00,62.2,55.3,30.00,SW,224,13.2,16.1,78,0.00,CLR,,0.01,WeatherDisplay:10.37,2013-03-03 23:04:00,
2013-03-03 15:05:00,62.2,55.3,30.00,SW,235,10.2,17.3,78,0.00,CLR,,0.01,WeatherDisplay:10.37,2013-03-03 23:05:00,
2013-03-03 15:06:00,62.2,55.3,30.00,SW,231,9.9,14.0,78,0.00,CLR,,0.01,WeatherDisplay:10.37,2013-03-03 23:06:00,
2013-03-03 15:08:00,62.1,55.2,30.00,SW,227,10.4,12.7,78,0.00,CLR,,0.01,WeatherDisplay:10.37,2013-03-03 23:08:00,
2013-03-03 15:09:00,62.1,55.2,30.00,WSW,239,10.6,14.0,78,0.00,CLR,,0.01,WeatherDisplay:10.37,2013-03-03 23:09:00,
2013-03-03 15:10:00,62.1,55.2,30.00,SW,223,10.8,15.0,78,0.00,CLR,,0.01,WeatherDisplay:10.37,2013-03-03 23:10:00,
2013-03-03 15:11:00,62.1,55.2,30.00,SW,226,11.8,16.1,78,0.00,CLR,,0.01,WeatherDisplay:10.37,2013-03-03 23:11:00,
2013-03-03 15:13:00,62.0,55.4,30.00,SW,229,10.9,13.8,79,0.00,CLR,,0.01,WeatherDisplay:10.37,2013-03-03 23:13:00,
2013-03-03 15:14:00,62.0,55.4,30.00,SW,229,9.8,12.7,79,0.00,CLR,,0.01,WeatherDisplay:10.37,2013-03-03 23:14:00,
2013-03-03 15:15:00,62.0,55.4,30.00,SW,221,11.5,14.0,79,0.00,CLR,,0.01,WeatherDisplay:10.37,2013-03-03 23:15:00,
2013-03-03 15:16:00,62.0,55.4,30.00,SW,230,12.0,13.8,79,0.00,CLR,,0.01,WeatherDisplay:10.37,2013-03-03 23:16:00,
2013-03-03 15:18:00,61.9,55.3,30.00,SW,232,9.9,12.7,79,0.00,CLR,,0.01,WeatherDisplay:10.37,2013-03-03 23:18:00,
2013-03-03 15:19:00,61.9,55.3,30.00,SW,225,10.2,13.0,79,0.00,CLR,,0.01,WeatherDisplay:10.37,2013-03-03 23:19:00,
2013-03-03 15:20:00,61.9,55.3,30.00,SW,236,10.7,12.7,79,0.00,CLR,,0.01,WeatherDisplay:10.37,2013-03-03 23:20:00,
2013-03-03 15:21:00,61.9,55.3,30.00,SW,228,11.2,15.0,79,0.00,CLR,,0.01,WeatherDisplay:10.37,2013-03-03 23:21:00,
2013-03-03 15:23:00,61.9,55.7,30.00,SW,234,11.0,12.7,80,0.00,CLR,,0.01,WeatherDisplay:10.37,2013-03-03 23:23:00,
2013-03-03 15:24:00,61.8,55.6,29.99,SW,230,10.3,12.7,80,0.00,CLR,,0.01,WeatherDisplay:10.37,2013-03-03 23:24:00,
2013-03-03 15:26:00,61.8,55.6,30.00,SW,227,12.2,13.8,80,0.00,CLR,,0.01,WeatherDisplay:10.37,2013-03-03 23:26:00,
2013-03-03 15:29:00,61.7,55.1,30.00,SW,232,10.7,13.8,79,0.00,CLR,,0.01,WeatherDisplay:10.37,2013-03-03 23:29:00,
2013-03-03 15:31:00,61.6,55.0,30.00,SW,228,8.7,12.7,79,0.00,CLR,,0.01,WeatherDisplay:10.37,2013-03-03 23:31:00,
2013-03-03 15:32:00,61.6,55.0,29.99,SW,228,12.0,14.0,79,0.00,CLR,,0.01,WeatherDisplay:10.37,2013-03-03 23:32:00,
2013-03-03 15:34:00,61.4,54.8,30.00,SW,228,9.8,16.1,79,0.00,CLR,,0.01,WeatherDisplay:10.37,2013-03-03 23:34:00,
2013-03-03 15:35:00,61.4,54.8,30.00,SW,227,9.7,11.5,79,0.00,CLR,,0.01,WeatherDisplay:10.37,2013-03-03 23:35:00,
2013-03-03 15:36:00,61.3,54.7,30.00,SW,227,11.3,13.8,79,0.00,CLR,,0.01,WeatherDisplay:10.37,2013-03-03 23:36:00,
2013-03-03 15:37:00,61.3,54.7,30.00,SW,231,9.8,16.1,79,0.00,CLR,,0.01,WeatherDisplay:10.37,2013-03-03 23:37:00,
2013-03-03 15:39:00,61.2,54.6,30.00,SW,228,11.3,15.0,79,0.00,CLR,,0.01,WeatherDisplay:10.37,2013-03-03 23:39:00,
2013-03-03 15:40:00,61.1,54.5,29.99,SW,227,11.2,16.1,79,0.00,CLR,,0.01,WeatherDisplay:10.37,2013-03-03 23:40:00,
2013-03-03 15:41:00,61.1,54.9,29.99,SW,232,10.5,15.0,80,0.00,CLR,,0.01,WeatherDisplay:10.37,2013-03-03 23:41:00,
2013-03-03 15:42:00,61.1,54.9,29.99,SW,231,11.6,14.0,80,0.00,CLR,,0.01,WeatherDisplay:10.37,2013-03-03 23:42:00,
2013-03-03 15:44:00,61.0,54.8,29.99,SW,229,9.8,11.5,80,0.00,CLR,,0.01,WeatherDisplay:10.37,2013-03-03 23:44:00,
2013-03-03 15:45:00,61.1,54.9,29.99,SW,224,9.6,11.5,80,0.00,CLR,,0.01,WeatherDisplay:10.37,2013-03-03 23:45:00,
2013-03-03 15:47:00,61.0,55.1,29.99,SW,227,9.0,15.0,81,0.00,CLR,,0.01,WeatherDisplay:10.37,2013-03-03 23:47:00,
2013-03-03 15:49:00,61.0,55.1,29.99,SW,232,8.8,13.0,81,0.00,CLR,,0.01,WeatherDisplay:10.37,2013-03-03 23:49:00,
2013-03-03 15:50:00,61.0,54.8,29.99,SW,219,9.8,12.7,80,0.00,CLR,,0.01,WeatherDisplay:10.37,2013-03-03 23:50:00,
2013-03-03 15:52:00,61.1,55.2,29.99,SW,221,10.6,13.8,81,0.00,CLR,,0.01,WeatherDisplay:10.37,2013-03-03 23:52:00,
2013-03-03 15:54:00,61.1,54.9,29.99,SW,226,10.2,12.7,80,0.00,CLR,,0.01,WeatherDisplay:10.37,2013-03-03 23:54:00,
2013-03-03 15:55:00,61.0,54.8,29.99,SW,226,8.9,12.7,80,0.00,CLR,,0.01,WeatherDisplay:10.37,2013-03-03 23:55:00,
2013-03-03 15:57:00,61.0,54.8,29.99,SW,221,8.5,11.5,80,0.00,CLR,,0.01,WeatherDisplay:10.37,2013-03-03 23:57:00,
2013-03-03 15:58:00,61.0,55.1,29.99,SW,225,8.4,11.5,81,0.00,CLR,,0.01,WeatherDisplay:10.37,2013-03-03 23:58:00,
2013-03-03 15:59:00,61.0,55.1,29.99,SW,216,9.8,10.4,81,0.00,CLR,,0.01,WeatherDisplay:10.37,2013-03-03 23:59:00,
2013-03-03 16:00:00,61.0,54.8,29.99,SW,218,9.1,11.5,80,0.00,CLR,,0.01,WeatherDisplay:10.37,2013-03-04 00:00:00,
2013-03-03 16:02:00,61.0,54.8,29.99,SW,216,10.0,12.0,80,0.00,CLR,,0.01,WeatherDisplay:10.37,2013-03-04 00:02:00,
2013-03-03 16:03:00,60.9,54.7,29.99,SW,223,9.7,11.5,80,0.00,CLR,,0.01,WeatherDisplay:10.37,2013-03-04 00:03:00,
2013-03-03 16:04:00,60.9,54.7,29.99,SW,228,10.2,11.5,80,0.00,CLR,,0.01,WeatherDisplay:10.37,2013-03-04 00:04:00,
2013-03-03 16:05:00,60.9,54.7,29.99,SW,234,10.0,11.5,80,0.00,CLR,,0.01,WeatherDisplay:10.37,2013-03-04 00:05:00,
2013-03-03 16:07:00,60.9,55.0,29.99,SW,216,9.2,10.4,81,0.00,CLR,,0.01,WeatherDisplay:10.37,2013-03-04 00:07:00,
2013-03-03 16:08:00,60.8,54.9,29.99,SW,223,9.6,11.5,81,0.00,CLR,,0.01,WeatherDisplay:10.37,2013-03-04 00:08:00,
2013-03-03 16:10:00,60.8,54.9,29.99,SW,228,7.8,10.4,81,0.00,CLR,,0.01,WeatherDisplay:10.37,2013-03-04 00:10:00,
2013-03-03 16:11:00,60.8,54.9,29.99,SW,222,8.1,10.4,81,0.00,CLR,,0.01,WeatherDisplay:10.37,2013-03-04 00:11:00,
2013-03-03 16:13:00,60.8,54.9,29.98,SW,230,9.1,11.5,81,0.00,CLR,,0.01,WeatherDisplay:10.37,2013-03-04 00:13:00,
2013-03-03 16:14:00,60.9,54.7,29.99,SW,231,9.8,11.5,80,0.00,CLR,,0.01,WeatherDisplay:10.37,2013-03-04 00:14:00,
2013-03-03 16:15:00,60.8,54.6,29.99,SW,233,9.1,12.7,80,0.00,CLR,,0.01,WeatherDisplay:10.37,2013-03-04 00:15:00,
2013-03-03 16:16:00,60.8,54.6,29.98,SW,229,10.3,13.8,80,0.00,CLR,,0.01,WeatherDisplay:10.37,2013-03-04 00:16:00,
2013-03-03 16:18:00,60.8,54.6,29.99,SW,236,10.5,11.5,80,0.00,CLR,,0.01,WeatherDisplay:10.37,2013-03-04 00:18:00,
2013-03-03 16:19:00,60.8,54.6,29.98,SW,231,8.9,12.7,80,0.00,CLR,,0.01,WeatherDisplay:10.37,2013-03-04 00:19:00,
2013-03-03 16:20:00,60.8,54.6,29.99,SW,226,9.6,11.5,80,0.00,CLR,,0.01,WeatherDisplay:10.37,2013-03-04 00:20:00,
2013-03-03 16:21:00,60.8,54.6,29.98,SW,216,8.8,11.5,80,0.00,CLR,,0.01,WeatherDisplay:10.37,2013-03-04 00:21:00,
2013-03-03 16:23:00,60.8,54.6,29.98,SW,219,8.8,11.5,80,0.00,CLR,,0.01,WeatherDisplay:10.37,2013-03-04 00:23:00,
2013-03-03 16:24:00,60.8,54.6,29.98,SSW,212,8.4,11.5,80,0.00,CLR,,0.01,WeatherDisplay:10.37,2013-03-04 00:24:00,
2013-03-03 16:25:00,60.8,54.6,29.99,SW,219,8.8,12.7,80,0.00,CLR,,0.01,WeatherDisplay:10.37,2013-03-04 00:25:00,
2013-03-03 16:26:00,60.7,54.5,29.99,SW,215,9.5,12.0,80,0.00,CLR,,0.01,WeatherDisplay:10.37,2013-03-04 00:26:00,
2013-03-03 16:28:00,60.8,54.6,29.98,SW,215,9.5,11.5,80,0.00,CLR,,0.01,WeatherDisplay:10.37,2013-03-04 00:28:00,
2013-03-03 16:29:00,60.7,54.5,29.99,SW,219,8.7,11.5,80,0.00,CLR,,0.01,WeatherDisplay:10.37,2013-03-04 00:29:00,
2013-03-03 16:30:00,60.7,54.5,29.98,SW,223,8.3,11.5,80,0.00,CLR,,0.01,WeatherDisplay:10.37,2013-03-04 00:30:00,
2013-03-03 16:31:00,60.7,54.8,29.98,SSW,210,7.3,11.5,81,0.00,CLR,,0.01,WeatherDisplay:10.37,2013-03-04 00:31:00,
2013-03-03 16:33:00,60.7,54.8,29.99,SW,220,7.6,10.0,81,0.00,CLR,,0.01,WeatherDisplay:10.37,2013-03-04 00:33:00,
2013-03-03 16:34:00,60.7,54.8,29.99,SW,223,9.8,11.5,81,0.00,CLR,,0.01,WeatherDisplay:10.37,2013-03-04 00:34:00,
2013-03-03 16:35:00,60.7,54.8,29.99,SSW,213,10.6,12.7,81,0.00,CLR,,0.01,WeatherDisplay:10.37,2013-03-04 00:35:00,
2013-03-03 16:36:00,60.7,55.2,29.99,SW,216,9.4,11.5,82,0.00,CLR,,0.01,WeatherDisplay:10.37,2013-03-04 00:36:00,
2013-03-03 16:38:00,60.7,55.2,29.99,SW,219,8.7,12.0,82,0.00,CLR,,0.01,WeatherDisplay:10.37,2013-03-04 00:38:00,
2013-03-03 16:39:00,60.6,55.1,29.99,SW,217,10.0,13.8,82,0.00,CLR,,0.01,WeatherDisplay:10.37,2013-03-04 00:39:00,
2013-03-03 16:40:00,60.6,55.1,29.99,SSW,210,9.8,12.7,82,0.00,CLR,,0.01,WeatherDisplay:10.37,2013-03-04 00:40:00,
2013-03-03 16:42:00,60.4,54.9,29.99,SW,218,9.7,11.5,82,0.00,CLR,,0.01,WeatherDisplay:10.37,2013-03-04 00:42:00,
2013-03-03 16:43:00,60.5,55.0,29.99,SW,219,7.4,11.5,82,0.00,CLR,,0.01,WeatherDisplay:10.37,2013-03-04 00:43:00,
2013-03-03 16:45:00,60.4,54.9,29.99,SW,220,9.8,11.5,82,0.00,CLR,,0.01,WeatherDisplay:10.37,2013-03-04 00:45:00,
2013-03-03 16:47:00,60.4,55.2,29.99,SSW,206,8.4,11.5,83,0.00,CLR,,0.01,WeatherDisplay:10.37,2013-03-04 00:47:00,
2013-03-03 16:48:00,60.3,55.1,29.99,SW,225,9.8,12.0,83,0.00,CLR,,0.01,WeatherDisplay:10.37,2013-03-04 00:48:00,
2013-03-03 16:50:00,60.3,55.1,29.99,SW,231,8.3,11.5,83,0.00,CLR,,0.01,WeatherDisplay:10.37,2013-03-04 00:50:00,
2013-03-03 16:51:00,60.3,55.1,29.99,SW,226,8.3,10.4,83,0.00,CLR,,0.01,WeatherDisplay:10.37,2013-03-04 00:51:00,
2013-03-03 16:52:00,60.2,55.0,29.99,SW,215,9.1,10.4,83,0.00,CLR,,0.01,WeatherDisplay:10.37,2013-03-04 00:52:00,
2013-03-03 16:54:00,60.3,55.1,30.00,SW,223,9.5,11.5,83,0.00,CLR,,0.01,WeatherDisplay:10.37,2013-03-04 00:54:00,
2013-03-03 16:55:00,60.2,55.3,29.99,SW,215,9.9,11.5,84,0.00,CLR,,0.01,WeatherDisplay:10.37,2013-03-04 00:55:00,
2013-03-03 16:56:00,60.1,55.2,29.99,SW,218,10.2,12.7,84,0.00,CLR,,0.01,WeatherDisplay:10.37,2013-03-04 00:56:00,
2013-03-03 16:58:00,60.1,55.2,29.99,SW,220,9.0,11.5,84,0.00,CLR,,0.01,WeatherDisplay:10.37,2013-03-04 00:58:00,
2013-03-03 16:59:00,60.1,55.2,29.99,SW,220,8.4,10.4,84,0.00,CLR,,0.01,WeatherDisplay:10.37,2013-03-04 00:59:00,
2013-03-03 17:00:00,60.0,55.2,29.99,SW,217,9.4,12.0,84,0.00,CLR,,0.01,WeatherDisplay:10.37,2013-03-04 01:00:00,
2013-03-03 17:01:00,60.0,55.2,29.99,SW,225,9.7,11.5,84,0.00,CLR,,0.01,WeatherDisplay:10.37,2013-03-04 01:01:00,
2013-03-03 17:03:00,60.0,55.5,30.00,SW,221,9.7,11.5,85,0.00,CLR,,0.01,WeatherDisplay:10.37,2013-03-04 01:03:00,
2013-03-03 17:04:00,59.9,55.4,29.99,SW,220,7.8,10.4,85,0.00,CLR,,0.01,WeatherDisplay:10.37,2013-03-04 01:04:00,
2013-03-03 17:05:00,59.9,55.4,29.99,SW,226,8.5,10.4,85,0.00,CLR,,0.01,WeatherDisplay:10.37,2013-03-04 01:05:00,
2013-03-03 17:06:00,59.9,55.4,29.99,SW,217,9.6,12.7,85,0.00,CLR,,0.01,WeatherDisplay:10.37,2013-03-04 01:06:00,
2013-03-03 17:08:00,59.8,55.3,29.99,SW,217,7.1,11.5,85,0.00,CLR,,0.01,WeatherDisplay:10.37,2013-03-04 01:08:00,
2013-03-03 17:09:00,59.7,55.2,30.00,SW,217,9.2,11.5,85,0.00,CLR,,0.01,WeatherDisplay:10.37,2013-03-04 01:09:00,
2013-03-03 17:10:00,59.7,55.5,29.99,SW,222,8.6,11.5,86,0.00,CLR,,0.01,WeatherDisplay:10.37,2013-03-04 01:10:00,
2013-03-03 17:11:00,59.7,55.2,29.99,SW,227,9.4,12.7,85,0.00,CLR,,0.01,WeatherDisplay:10.37,2013-03-04 01:11:00,
2013-03-03 17:13:00,59.6,55.4,29.99,SW,217,8.9,11.5,86,0.00,CLR,,0.01,WeatherDisplay:10.37,2013-03-04 01:13:00,
2013-03-03 17:14:00,59.6,55.4,29.99,SW,216,9.9,11.5,86,0.00,CLR,,0.01,WeatherDisplay:10.37,2013-03-04 01:14:00,
2013-03-03 17:15:00,59.5,55.3,29.99,SW,217,11.2,12.7,86,0.00,CLR,,0.01,WeatherDisplay:10.37,2013-03-04 01:15:00,
2013-03-03 17:16:00,59.5,55.3,30.00,SW,217,10.4,13.0,86,0.00,CLR,,0.01,WeatherDisplay:10.37,2013-03-04 01:16:00,
2013-03-03 17:18:00,59.4,55.5,29.99,SW,225,8.1,10.4,87,0.00,CLR,,0.01,WeatherDisplay:10.37,2013-03-04 01:18:00,
2013-03-03 17:19:00,59.4,55.5,30.00,SW,217,7.6,10.4,87,0.00,CLR,,0.01,WeatherDisplay:10.37,2013-03-04 01:19:00,
2013-03-03 17:20:00,59.3,55.4,29.99,SW,231,11.2,12.7,87,0.00,CLR,,0.01,WeatherDisplay:10.37,2013-03-04 01:20:00,
2013-03-03 17:21:00,59.3,55.4,29.99,SW,223,9.0,12.7,87,0.00,CLR,,0.01,WeatherDisplay:10.37,2013-03-04 01:21:00,
2013-03-03 17:23:00,59.2,55.6,29.99,SW,233,8.7,12.7,88,0.00,CLR,,0.01,WeatherDisplay:10.37,2013-03-04 01:23:00,
2013-03-03 17:24:00,59.2,55.6,29.99,SW,227,7.8,11.5,88,0.00,CLR,,0.01,WeatherDisplay:10.37,2013-03-04 01:24:00,
2013-03-03 17:25:00,59.1,55.5,29.99,SW,231,10.4,13.8,88,0.00,CLR,,0.01,WeatherDisplay:10.37,2013-03-04 01:25:00,
2013-03-03 17:26:00,59.1,55.5,29.99,SW,232,9.8,12.7,88,0.00,CLR,,0.01,WeatherDisplay:10.37,2013-03-04 01:26:00,
2013-03-03 17:28:00,59.0,55.4,29.99,SW,221,10.3,11.5,88,0.00,CLR,,0.01,WeatherDisplay:10.37,2013-03-04 01:28:00,
2013-03-03 17:29:00,59.0,55.4,29.99,SW,232,9.0,13.8,88,0.00,CLR,,0.01,WeatherDisplay:10.37,2013-03-04 01:29:00,
2013-03-03 17:30:00,59.0,55.4,29.99,SW,227,8.5,12.7,88,0.00,CLR,,0.01,WeatherDisplay:10.37,2013-03-04 01:30:00,
2013-03-03 17:32:00,58.9,55.4,29.99,SW,227,9.6,12.7,88,0.00,CLR,,0.01,WeatherDisplay:10.37,2013-03-04 01:32:00,
2013-03-03 17:34:00,58.8,55.6,29.99,SW,228,10.7,15.0,89,0.00,CLR,,0.01,WeatherDisplay:10.37,2013-03-04 01:34:00,
2013-03-03 17:35:00,58.8,55.6,29.99,SW,232,9.1,11.5,89,0.00,CLR,,0.01,WeatherDisplay:10.37,2013-03-04 01:35:00,
2013-03-03 17:37:00,58.7,55.2,29.99,SW,236,9.1,12.7,88,0.00,CLR,,0.01,WeatherDisplay:10.37,2013-03-04 01:37:00,
2013-03-03 17:39:00,58.6,55.4,29.99,WSW,244,8.2,12.7,89,0.00,CLR,,0.01,WeatherDisplay:10.37,2013-03-04 01:39:00,
2013-03-03 17:41:00,58.6,55.4,29.99,SW,233,8.5,11.5,89,0.00,CLR,,0.01,WeatherDisplay:10.37,2013-03-04 01:41:00,
2013-03-03 17:42:00,58.5,55.3,29.99,WSW,238,8.9,11.5,89,0.00,CLR,,0.01,WeatherDisplay:10.37,2013-03-04 01:42:00,
2013-03-03 17:44:00,58.4,55.2,29.99,SW,222,7.5,12.7,89,0.00,CLR,,0.01,WeatherDisplay:10.37,2013-03-04 01:44:00,
2013-03-03 17:46:00,58.4,55.2,29.99,SW,232,5.7,8.1,89,0.00,CLR,,0.01,WeatherDisplay:10.37,2013-03-04 01:46:00,
2013-03-03 17:48:00,58.4,55.2,29.99,WSW,258,6.1,11.5,89,0.00,CLR,,0.01,WeatherDisplay:10.37,2013-03-04 01:48:00,
2013-03-03 17:49:00,58.4,55.2,29.99,SW,233,7.2,9.2,89,0.00,CLR,,0.01,WeatherDisplay:10.37,2013-03-04 01:49:00,
2013-03-03 17:50:00,58.3,55.1,29.99,WSW,240,7.2,9.2,89,0.00,CLR,,0.01,WeatherDisplay:10.37,2013-03-04 01:50:00,
2013-03-03 17:51:00,58.3,55.1,29.99,SW,234,7.0,10.4,89,0.00,CLR,,0.01,WeatherDisplay:10.37,2013-03-04 01:51:00,
2013-03-03 17:53:00,58.3,55.1,29.99,WSW,240,7.9,12.7,89,0.00,CLR,,0.01,WeatherDisplay:10.37,2013-03-04 01:53:00,
2013-03-03 17:54:00,58.2,55.0,29.99,SW,226,6.9,15.0,89,0.00,CLR,,0.01,WeatherDisplay:10.37,2013-03-04 01:54:00,
2013-03-03 17:55:00,58.2,55.0,29.99,SW,229,6.8,10.0,89,0.00,CLR,,0.01,WeatherDisplay:10.37,2013-03-04 01:55:00,
2013-03-03 17:56:00,58.2,55.0,29.99,SW,235,7.3,11.5,89,0.00,CLR,,0.01,WeatherDisplay:10.37,2013-03-04 01:56:00,
2013-03-03 17:58:00,58.1,54.9,29.99,SW,233,5.9,9.2,89,0.00,CLR,,0.01,WeatherDisplay:10.37,2013-03-04 01:58:00,
2013-03-03 17:59:00,58.1,54.9,29.99,WSW,237,7.0,9.2,89,0.00,CLR,,0.01,WeatherDisplay:10.37,2013-03-04 01:59:00,
2013-03-03 18:00:00,58.0,54.8,30.00,WSW,251,7.9,11.5,89,0.00,CLR,,0.01,WeatherDisplay:10.37,2013-03-04 02:00:00,
2013-03-03 18:01:00,58.0,54.8,29.99,WSW,238,7.1,11.5,89,0.00,CLR,,0.01,WeatherDisplay:10.37,2013-03-04 02:01:00,
2013-03-03 18:03:00,58.0,54.8,29.99,WSW,244,8.0,11.5,89,0.00,CLR,,0.01,WeatherDisplay:10.37,2013-03-04 02:03:00,
2013-03-03 18:04:00,58.0,55.1,29.99,WSW,242,8.0,10.4,90,0.00,CLR,,0.01,WeatherDisplay:10.37,2013-03-04 02:04:00,
2013-03-03 18:05:00,57.9,54.7,29.99,WSW,238,8.0,12.7,89,0.00,CLR,,0.01,WeatherDisplay:10.37,2013-03-04 02:05:00,
2013-03-03 18:06:00,57.9,55.0,30.00,WSW,240,5.9,9.2,90,0.00,CLR,,0.01,WeatherDisplay:10.37,2013-03-04 02:06:00,
2013-03-03 18:08:00,57.9,55.0,30.00,WSW,246,5.7,9.2,90,0.00,CLR,,0.01,WeatherDisplay:10.37,2013-03-04 02:08:00,
2013-03-03 18:10:00,57.9,55.0,29.99,WSW,237,5.1,9.2,90,0.00,CLR,,0.01,WeatherDisplay:10.37,2013-03-04 02:10:00,
2013-03-03 18:12:00,57.9,55.0,29.99,SW,236,5.5,12.0,90,0.00,CLR,,0.01,WeatherDisplay:10.37,2013-03-04 02:12:00,
2013-03-03 18:13:00,57.8,54.9,29.99,SW,232,6.3,11.5,90,0.00,CLR,,0.01,WeatherDisplay:10.37,2013-03-04 02:13:00,
2013-03-03 18:15:00,57.8,55.2,29.99,WSW,245,5.8,8.1,91,0.00,CLR,,0.01,WeatherDisplay:10.37,2013-03-04 02:15:00,
2013-03-03 18:17:00,57.8,54.9,30.00,WSW,242,5.8,8.1,90,0.00,CLR,,0.01,WeatherDisplay:10.37,2013-03-04 02:17:00,
2013-03-03 18:18:00,57.8,55.2,29.99,WSW,239,4.6,8.1,91,0.00,CLR,,0.01,WeatherDisplay:10.37,2013-03-04 02:18:00,
2013-03-03 18:20:00,57.8,55.2,30.00,SW,230,7.0,8.1,91,0.00,CLR,,0.01,WeatherDisplay:10.37,2013-03-04 02:20:00,
2013-03-03 18:22:00,57.7,55.1,30.00,SW,236,9.5,11.5,91,0.00,CLR,,0.01,WeatherDisplay:10.37,2013-03-04 02:22:00,
2013-03-03 18:23:00,57.8,55.2,30.00,SW,224,7.1,11.5,91,0.00,CLR,,0.01,WeatherDisplay:10.37,2013-03-04 02:23:00,
2013-03-03 18:25:00,57.6,55.0,30.00,SW,228,8.1,9.2,91,0.00,CLR,,0.01,WeatherDisplay:10.37,2013-03-04 02:25:00,
2013-03-03 18:27:00,57.7,55.1,30.00,SW,232,7.6,9.2,91,0.00,CLR,,0.01,WeatherDisplay:10.37,2013-03-04 02:27:00,
2013-03-03 18:29:00,57.6,55.0,30.00,SW,220,7.3,10.4,91,0.00,CLR,,0.01,WeatherDisplay:10.37,2013-03-04 02:29:00,
2013-03-03 18:31:00,57.6,55.0,30.00,SW,226,7.0,9.2,91,0.00,CLR,,0.01,WeatherDisplay:10.37,2013-03-04 02:31:00,
2013-03-03 18:32:00,57.6,55.0,30.00,WSW,248,6.4,10.0,91,0.00,CLR,,0.01,WeatherDisplay:10.37,2013-03-04 02:32:00,
2013-03-03 18:34:00,57.6,55.0,30.00,SW,236,5.6,9.2,91,0.00,CLR,,0.01,WeatherDisplay:10.37,2013-03-04 02:34:00,
2013-03-03 18:36:00,57.6,55.0,30.00,SW,230,5.4,8.1,91,0.00,CLR,,0.01,WeatherDisplay:10.37,2013-03-04 02:36:00,
2013-03-03 18:37:00,57.5,54.9,30.00,SW,229,4.6,8.1,91,0.00,CLR,,0.01,WeatherDisplay:10.37,2013-03-04 02:37:00,
2013-03-03 18:39:00,57.6,55.3,30.00,WSW,247,4.4,6.9,92,0.00,CLR,,0.01,WeatherDisplay:10.37,2013-03-04 02:39:00,
2013-03-03 18:41:00,57.6,55.0,30.00,SW,228,4.4,6.9,91,0.00,CLR,,0.01,WeatherDisplay:10.37,2013-03-04 02:41:00,
2013-03-03 18:42:00,57.5,55.2,30.00,SW,231,4.8,6.9,92,0.00,CLR,,0.01,WeatherDisplay:10.37,2013-03-04 02:42:00,
2013-03-03 18:44:00,57.5,55.2,30.00,SW,226,4.2,5.8,92,0.00,CLR,,0.01,WeatherDisplay:10.37,2013-03-04 02:44:00,
2013-03-03 18:46:00,57.5,55.2,30.00,WSW,252,3.8,4.6,92,0.00,CLR,,0.01,WeatherDisplay:10.37,2013-03-04 02:46:00,
2013-03-03 18:47:00,57.5,55.2,30.01,WSW,253,4.0,6.9,92,0.00,CLR,,0.01,WeatherDisplay:10.37,2013-03-04 02:47:00,
2013-03-03 18:49:00,57.5,55.2,30.00,SW,236,3.7,5.8,92,0.00,CLR,,0.01,WeatherDisplay:10.37,2013-03-04 02:49:00,
2013-03-03 18:51:00,57.5,55.5,30.00,WSW,239,4.0,7.0,93,0.00,CLR,,0.01,WeatherDisplay:10.37,2013-03-04 02:51:00,
2013-03-03 18:52:00,57.5,55.2,30.00,SW,230,3.3,6.9,92,0.00,CLR,,0.01,WeatherDisplay:10.37,2013-03-04 02:52:00,
2013-03-03 18:54:00,57.4,55.1,30.00,SW,225,2.9,4.6,92,0.00,CLR,,0.01,WeatherDisplay:10.37,2013-03-04 02:54:00,
2013-03-03 18:56:00,57.4,55.4,30.00,SW,225,0.1,3.5,93,0.00,CLR,,0.01,WeatherDisplay:10.37,2013-03-04 02:56:00,
2013-03-03 18:57:00,57.4,55.4,30.00,SW,225,1.9,4.0,93,0.00,CLR,,0.01,WeatherDisplay:10.37,2013-03-04 02:57:00,
2013-03-03 19:00:00,57.4,55.4,30.00,SW,225,1.8,3.5,93,0.00,CLR,,0.01,WeatherDisplay:10.37,2013-03-04 03:00:00,
2013-03-03 19:02:00,57.4,55.4,30.00,SW,225,0.1,1.2,93,0.00,CLR,,0.01,WeatherDisplay:10.37,2013-03-04 03:02:00,
2013-03-03 19:03:00,57.4,55.4,30.00,SW,225,0.2,3.5,93,0.00,CLR,,0.01,WeatherDisplay:10.37,2013-03-04 03:03:00,
2013-03-03 19:05:00,57.4,55.4,30.00,SW,225,3.1,4.6,93,0.00,CLR,,0.01,WeatherDisplay:10.37,2013-03-04 03:05:00,
2013-03-03 19:07:00,57.4,55.4,30.01,SW,226,4.0,5.0,93,0.00,CLR,,0.01,WeatherDisplay:10.37,2013-03-04 03:07:00,
2013-03-03 19:08:00,57.4,55.4,30.00,SW,226,3.7,4.6,93,0.00,CLR,,0.01,WeatherDisplay:10.37,2013-03-04 03:08:00,
2013-03-03 19:10:00,57.3,55.3,30.00,SW,228,2.8,5.0,93,0.00,CLR,,0.01,WeatherDisplay:10.37,2013-03-04 03:10:00,
2013-03-03 19:12:00,57.3,55.3,30.00,SW,228,3.1,4.0,93,0.00,CLR,,0.01,WeatherDisplay:10.37,2013-03-04 03:12:00,
2013-03-03 19:13:00,57.3,55.3,30.00,SW,228,4.8,6.0,93,0.00,CLR,,0.01,WeatherDisplay:10.37,2013-03-04 03:13:00,
2013-03-03 19:15:00,57.3,55.3,30.01,SW,228,4.5,5.8,93,0.00,CLR,,0.01,WeatherDisplay:10.37,2013-03-04 03:15:00,
2013-03-03 19:17:00,57.3,55.3,30.00,SW,228,2.4,3.5,93,0.00,CLR,,0.01,WeatherDisplay:10.37,2013-03-04 03:17:00,
2013-03-03 19:19:00,57.2,55.2,30.00,SW,228,3.1,4.6,93,0.00,CLR,,0.01,WeatherDisplay:10.37,2013-03-04 03:19:00,
2013-03-03 19:20:00,57.2,55.5,30.01,SW,228,2.8,4.6,94,0.00,CLR,,0.01,WeatherDisplay:10.37,2013-03-04 03:20:00,
2013-03-03 19:22:00,57.2,55.5,30.01,SW,228,2.9,3.5,94,0.00,CLR,,0.01,WeatherDisplay:10.37,2013-03-04 03:22:00,
2013-03-03 19:24:00,57.3,55.6,30.01,SW,228,3.8,6.0,94,0.00,CLR,,0.01,WeatherDisplay:10.37,2013-03-04 03:24:00,
2013-03-03 19:26:00,57.2,55.5,30.01,SW,228,1.6,3.5,94,0.00,CLR,,0.01,WeatherDisplay:10.37,2013-03-04 03:26:00,
2013-03-03 19:27:00,57.2,55.5,30.01,SW,228,0.0,2.3,94,0.00,CLR,,0.01,WeatherDisplay:10.37,2013-03-04 03:27:00,
2013-03-03 19:28:00,57.2,55.5,30.01,SW,228,0.0,0.0,94,0.00,CLR,,0.01,WeatherDisplay:10.37,2013-03-04 03:28:00,
2013-03-03 19:29:00,57.2,55.5,30.01,SW,228,0.8,2.3,94,0.00,CLR,,0.01,WeatherDisplay:10.37,2013-03-04 03:29:00,
2013-03-03 19:31:00,57.2,55.5,30.01,SW,228,0.0,1.2,94,0.00,CLR,,0.01,WeatherDisplay:10.37,2013-03-04 03:31:00,
2013-03-03 19:32:00,57.2,55.8,30.01,SW,228,0.6,3.0,95,0.00,CLR,,0.01,WeatherDisplay:10.37,2013-03-04 03:32:00,
2013-03-03 19:33:00,57.2,55.5,30.01,SW,228,1.7,3.5,94,0.00,CLR,,0.01,WeatherDisplay:10.37,2013-03-04 03:33:00,
2013-03-03 19:34:00,57.2,55.5,30.01,SW,228,2.7,4.6,94,0.00,CLR,,0.01,WeatherDisplay:10.37,2013-03-04 03:34:00,
2013-03-03 19:36:00,57.1,55.4,30.01,SW,228,2.3,3.5,94,0.00,CLR,,0.01,WeatherDisplay:10.37,2013-03-04 03:36:00,
2013-03-03 19:37:00,57.2,55.5,30.01,SW,228,0.0,3.5,94,0.00,CLR,,0.01,WeatherDisplay:10.37,2013-03-04 03:37:00,
2013-03-03 19:38:00,57.1,55.4,30.01,SW,228,0.0,0.0,94,0.00,CLR,,0.01,WeatherDisplay:10.37,2013-03-04 03:38:00,
2013-03-03 19:39:00,57.1,55.4,30.01,SW,228,0.0,0.0,94,0.00,CLR,,0.01,WeatherDisplay:10.37,2013-03-04 03:39:00,
2013-03-03 19:41:00,57.1,55.4,30.01,SW,228,3.9,4.6,94,0.00,CLR,,0.01,WeatherDisplay:10.37,2013-03-04 03:41:00,
2013-03-03 19:42:00,57.1,55.4,30.01,SW,228,4.4,5.8,94,0.00,CLR,,0.01,WeatherDisplay:10.37,2013-03-04 03:42:00,
2013-03-03 19:43:00,57.1,55.4,30.01,SW,228,4.0,5.8,94,0.00,CLR,,0.01,WeatherDisplay:10.37,2013-03-04 03:43:00,
2013-03-03 19:44:00,57.1,55.4,30.01,SW,228,4.2,5.8,94,0.00,CLR,,0.01,WeatherDisplay:10.37,2013-03-04 03:44:00,
2013-03-03 19:46:00,57.0,55.3,30.01,SW,228,4.6,7.0,94,0.00,CLR,,0.01,WeatherDisplay:10.37,2013-03-04 03:46:00,
2013-03-03 19:48:00,57.0,55.6,30.01,SW,228,5.1,6.0,95,0.00,CLR,,0.01,WeatherDisplay:10.37,2013-03-04 03:48:00,
2013-03-03 19:49:00,57.0,55.6,30.01,SW,227,6.6,9.2,95,0.00,CLR,,0.01,WeatherDisplay:10.37,2013-03-04 03:49:00,
2013-03-03 19:52:00,57.0,55.6,30.01,SW,227,6.1,8.1,95,0.00,CLR,,0.01,WeatherDisplay:10.37,2013-03-04 03:52:00,
2013-03-03 19:53:00,57.0,55.6,30.02,SW,227,5.7,8.1,95,0.00,CLR,,0.01,WeatherDisplay:10.37,2013-03-04 03:53:00,
2013-03-03 19:54:00,57.0,55.6,30.01,SW,227,6.0,8.1,95,0.00,CLR,,0.01,WeatherDisplay:10.37,2013-03-04 03:54:00,
2013-03-03 19:57:00,57.0,55.6,30.02,SW,227,6.8,9.2,95,0.00,CLR,,0.01,WeatherDisplay:10.37,2013-03-04 03:57:00,
2013-03-03 19:58:00,57.0,55.6,30.01,SW,229,6.7,9.2,95,0.00,CLR,,0.01,WeatherDisplay:10.37,2013-03-04 03:58:00,
2013-03-03 19:59:00,56.9,55.8,30.01,SW,229,4.7,8.1,96,0.00,CLR,,0.01,WeatherDisplay:10.37,2013-03-04 03:59:00,
2013-03-03 20:02:00,56.9,55.5,30.02,SW,229,5.2,6.9,95,0.00,CLR,,0.01,WeatherDisplay:10.37,2013-03-04 04:02:00,
2013-03-03 20:03:00,56.9,55.8,30.02,SW,229,4.6,5.8,96,0.00,CLR,,0.01,WeatherDisplay:10.37,2013-03-04 04:03:00,
2013-03-03 20:04:00,56.9,55.8,30.01,SW,229,4.8,7.0,96,0.00,CLR,,0.01,WeatherDisplay:10.37,2013-03-04 04:04:00,
2013-03-03 20:07:00,56.9,55.8,30.02,SW,226,4.2,5.8,96,0.00,CLR,,0.01,WeatherDisplay:10.37,2013-03-04 04:07:00,
2013-03-03 20:08:00,56.9,55.8,30.02,SW,226,4.4,6.9,96,0.00,CLR,,0.01,WeatherDisplay:10.37,2013-03-04 04:08:00,
2013-03-03 20:09:00,56.8,55.4,30.02,SW,226,4.2,5.0,95,0.00,CLR,,0.01,WeatherDisplay:10.37,2013-03-04 04:09:00,
2013-03-03 20:10:00,56.8,55.7,30.02,SW,226,4.7,5.8,96,0.00,CLR,,0.01,WeatherDisplay:10.37,2013-03-04 04:10:00,
2013-03-03 20:12:00,56.8,55.4,30.02,SW,226,4.1,6.9,95,0.00,CLR,,0.01,WeatherDisplay:10.37,2013-03-04 04:12:00,
2013-03-03 20:13:00,56.7,55.6,30.02,SW,226,4.0,6.0,96,0.00,CLR,,0.01,WeatherDisplay:10.37,2013-03-04 04:13:00,
2013-03-03 20:14:00,56.8,55.7,30.02,SW,226,4.5,6.0,96,0.00,CLR,,0.01,WeatherDisplay:10.37,2013-03-04 04:14:00,
2013-03-03 20:15:00,56.7,55.6,30.01,SW,226,5.3,6.9,96,0.00,CLR,,0.01,WeatherDisplay:10.37,2013-03-04 04:15:00,
2013-03-03 20:18:00,56.7,55.6,30.02,SW,226,4.9,6.9,96,0.00,CLR,,0.01,WeatherDisplay:10.37,2013-03-04 04:18:00,
2013-03-03 20:19:00,56.7,55.6,30.02,SW,226,4.1,6.9,96,0.00,CLR,,0.01,WeatherDisplay:10.37,2013-03-04 04:19:00,
2013-03-03 20:20:00,56.7,55.6,30.02,SW,226,4.0,5.0,96,0.00,CLR,,0.01,WeatherDisplay:10.37,2013-03-04 04:20:00,
2013-03-03 20:23:00,56.7,55.6,30.02,SW,226,4.2,5.8,96,0.00,CLR,,0.01,WeatherDisplay:10.37,2013-03-04 04:23:00,
2013-03-03 20:24:00,56.7,55.6,30.02,SW,226,4.1,5.0,96,0.00,CLR,,0.01,WeatherDisplay:10.37,2013-03-04 04:24:00,
2013-03-03 20:25:00,56.7,55.6,30.01,SW,226,4.3,5.8,96,0.00,CLR,,0.01,WeatherDisplay:10.37,2013-03-04 04:25:00,
2013-03-03 20:28:00,56.7,55.6,30.02,SW,226,3.1,3.5,96,0.00,CLR,,0.01,WeatherDisplay:10.37,2013-03-04 04:28:00,
2013-03-03 20:29:00,56.6,55.5,30.02,SW,226,3.3,4.6,96,0.00,CLR,,0.01,WeatherDisplay:10.37,2013-03-04 04:29:00,
2013-03-03 20:30:00,56.7,55.6,30.02,SW,226,2.9,3.5,96,0.00,CLR,,0.01,WeatherDisplay:10.37,2013-03-04 04:30:00,
2013-03-03 20:33:00,56.7,55.6,30.02,SW,226,5.8,6.9,96,0.00,CLR,,0.01,WeatherDisplay:10.37,2013-03-04 04:33:00,
2013-03-03 20:34:00,56.7,55.6,30.02,SW,226,4.8,5.8,96,0.00,CLR,,0.01,WeatherDisplay:10.37,2013-03-04 04:34:00,
2013-03-03 20:35:00,56.7,55.6,30.02,SW,226,5.5,7.0,96,0.00,CLR,,0.01,WeatherDisplay:10.37,2013-03-04 04:35:00,
2013-03-03 20:38:00,56.6,55.5,30.02,SW,226,4.1,6.9,96,0.00,CLR,,0.01,WeatherDisplay:10.37,2013-03-04 04:38:00,
2013-03-03 20:39:00,56.6,55.5,30.01,SW,226,3.0,8.0,96,0.00,CLR,,0.01,WeatherDisplay:10.37,2013-03-04 04:39:00,
2013-03-03 20:40:00,56.6,55.8,30.01,SW,226,3.9,5.0,97,0.00,CLR,,0.01,WeatherDisplay:10.37,2013-03-04 04:40:00,
2013-03-03 20:43:00,56.6,55.8,30.01,SW,226,4.2,5.8,97,0.00,CLR,,0.01,WeatherDisplay:10.37,2013-03-04 04:43:00,
2013-03-03 20:45:00,56.7,55.6,30.02,SW,226,4.5,5.8,96,0.00,CLR,,0.01,WeatherDisplay:10.37,2013-03-04 04:45:00,
2013-03-03 20:46:00,56.6,55.8,30.01,SW,226,4.0,4.6,97,0.00,CLR,,0.01,WeatherDisplay:10.37,2013-03-04 04:46:00,
2013-03-03 20:48:00,56.6,55.8,30.01,SW,226,4.6,5.8,97,0.00,CLR,,0.01,WeatherDisplay:10.37,2013-03-04 04:48:00,
2013-03-03 20:49:00,56.6,55.8,30.01,SW,226,4.5,5.8,97,0.00,CLR,,0.01,WeatherDisplay:10.37,2013-03-04 04:49:00,
2013-03-03 20:50:00,56.6,55.8,30.01,SW,226,4.0,5.8,97,0.00,CLR,,0.01,WeatherDisplay:10.37,2013-03-04 04:50:00,
2013-03-03 20:51:00,56.7,55.9,30.02,SW,226,4.6,5.8,97,0.00,CLR,,0.01,WeatherDisplay:10.37,2013-03-04 04:51:00,
2013-03-03 20:54:00,56.7,55.9,30.02,SW,226,4.8,5.8,97,0.00,CLR,,0.01,WeatherDisplay:10.37,2013-03-04 04:54:00,
2013-03-03 20:55:00,56.6,55.8,30.01,SW,226,5.0,5.8,97,0.00,CLR,,0.01,WeatherDisplay:10.37,2013-03-04 04:55:00,
2013-03-03 20:56:00,56.7,55.9,30.01,SW,226,5.5,6.9,97,0.00,CLR,,0.01,WeatherDisplay:10.37,2013-03-04 04:56:00,
2013-03-03 20:59:00,56.6,55.8,30.02,SW,226,5.2,7.0,97,0.00,CLR,,0.01,WeatherDisplay:10.37,2013-03-04 04:59:00,
2013-03-03 21:00:00,56.7,55.9,30.02,SW,226,6.3,8.1,97,0.00,CLR,,0.01,WeatherDisplay:10.37,2013-03-04 05:00:00,
2013-03-03 21:05:00,56.7,55.9,30.02,SW,226,4.7,6.0,97,0.00,CLR,,0.01,WeatherDisplay:10.37,2013-03-04 05:05:00,
2013-03-03 21:10:00,56.7,55.9,30.02,SW,226,4.3,6.9,97,0.00,CLR,,0.01,WeatherDisplay:10.37,2013-03-04 05:10:00,
2013-03-03 21:15:00,56.6,55.8,30.02,SW,226,5.1,8.1,97,0.00,CLR,,0.01,WeatherDisplay:10.37,2013-03-04 05:15:00,
2013-03-03 21:20:00,56.6,55.8,30.02,SW,232,4.7,6.0,97,0.00,CLR,,0.01,WeatherDisplay:10.37,2013-03-04 05:20:00,
2013-03-03 21:21:00,56.6,55.8,30.02,SW,232,5.0,6.9,97,0.00,CLR,,0.01,WeatherDisplay:10.37,2013-03-04 05:21:00,
2013-03-03 21:25:00,56.6,56.0,30.02,SW,232,5.7,9.2,98,0.00,CLR,,0.01,WeatherDisplay:10.37,2013-03-04 05:25:00,
2013-03-03 21:26:00,56.6,56.0,30.02,SW,230,5.0,8.1,98,0.00,CLR,,0.01,WeatherDisplay:10.37,2013-03-04 05:26:00,
2013-03-03 21:30:00,56.5,55.9,30.02,SW,226,7.0,10.4,98,0.00,CLR,,0.01,WeatherDisplay:10.37,2013-03-04 05:30:00,
2013-03-03 21:31:00,56.5,55.9,30.02,SW,226,6.6,10.4,98,0.00,CLR,,0.01,WeatherDisplay:10.37,2013-03-04 05:31:00,
2013-03-03 21:35:00,56.5,55.9,30.02,SW,223,7.2,10.4,98,0.00,CLR,,0.01,WeatherDisplay:10.37,2013-03-04 05:35:00,
2013-03-03 21:36:00,56.4,55.8,30.02,SW,223,7.2,9.2,98,0.00,CLR,,0.01,WeatherDisplay:10.37,2013-03-04 05:36:00,
2013-03-03 21:41:00,56.4,55.8,30.02,WSW,242,7.6,9.2,98,0.00,CLR,,0.01,WeatherDisplay:10.37,2013-03-04 05:41:00,
2013-03-03 21:46:00,56.3,55.7,30.02,SW,216,6.6,9.0,98,0.00,CLR,,0.01,WeatherDisplay:10.37,2013-03-04 05:46:00,
2013-03-03 21:47:00,56.3,55.7,30.02,SW,219,6.6,9.2,98,0.00,CLR,,0.01,WeatherDisplay:10.37,2013-03-04 05:47:00,
2013-03-03 21:51:00,56.3,55.7,30.02,SW,232,7.0,8.1,98,0.00,CLR,,0.01,WeatherDisplay:10.37,2013-03-04 05:51:00,
2013-03-03 21:52:00,56.2,55.6,30.02,WSW,240,5.1,10.4,98,0.00,CLR,,0.01,WeatherDisplay:10.37,2013-03-04 05:52:00,
2013-03-03 21:56:00,56.2,55.6,30.02,SSW,212,7.9,10.4,98,0.00,CLR,,0.01,WeatherDisplay:10.37,2013-03-04 05:56:00,
2013-03-03 21:57:00,56.2,55.6,30.02,SW,222,8.4,11.5,98,0.00,CLR,,0.01,WeatherDisplay:10.37,2013-03-04 05:57:00,
2013-03-03 22:01:00,56.2,55.6,30.02,WSW,237,7.9,10.4,98,0.00,CLR,,0.01,WeatherDisplay:10.37,2013-03-04 06:01:00,
2013-03-03 22:03:00,56.1,55.5,30.02,SW,233,7.5,11.5,98,0.00,CLR,,0.01,WeatherDisplay:10.37,2013-03-04 06:03:00,
2013-03-03 22:06:00,56.1,55.5,30.02,SW,226,6.8,10.4,98,0.00,CLR,,0.01,WeatherDisplay:10.37,2013-03-04 06:06:00,
2013-03-03 22:08:00,56.1,55.5,30.02,SW,221,8.0,11.5,98,0.00,CLR,,0.01,WeatherDisplay:10.37,2013-03-04 06:08:00,
2013-03-03 22:11:00,56.0,55.4,30.02,SW,218,9.1,11.5,98,0.00,CLR,,0.01,WeatherDisplay:10.37,2013-03-04 06:11:00,
2013-03-03 22:12:00,56.1,55.5,30.01,SW,222,8.5,11.5,98,0.00,CLR,,0.01,WeatherDisplay:10.37,2013-03-04 06:12:00,
2013-03-03 22:13:00,56.0,55.4,30.02,SW,224,8.3,10.4,98,0.00,CLR,,0.01,WeatherDisplay:10.37,2013-03-04 06:13:00,
2013-03-03 22:16:00,56.0,55.4,30.02,SW,226,8.6,11.5,98,0.00,CLR,,0.01,WeatherDisplay:10.37,2013-03-04 06:16:00,
2013-03-03 22:17:00,56.0,55.4,30.02,SW,223,8.7,11.5,98,0.00,CLR,,0.01,WeatherDisplay:10.37,2013-03-04 06:17:00,
2013-03-03 22:18:00,56.0,55.4,30.02,SW,216,7.0,10.4,98,0.00,CLR,,0.01,WeatherDisplay:10.37,2013-03-04 06:18:00,
2013-03-03 22:21:00,56.0,55.4,30.02,SW,218,9.1,11.5,98,0.00,CLR,,0.01,WeatherDisplay:10.37,2013-03-04 06:21:00,
2013-03-03 22:22:00,56.0,55.4,30.02,SW,217,8.5,11.5,98,0.00,CLR,,0.01,WeatherDisplay:10.37,2013-03-04 06:22:00,
2013-03-03 22:23:00,56.0,55.4,30.02,SW,218,10.4,11.5,98,0.00,CLR,,0.01,WeatherDisplay:10.37,2013-03-04 06:23:00,
2013-03-03 22:26:00,55.9,55.3,30.02,SW,214,9.0,11.5,98,0.00,CLR,,0.01,WeatherDisplay:10.37,2013-03-04 06:26:00,
2013-03-03 22:27:00,55.9,55.6,30.02,SW,217,8.5,11.5,99,0.00,CLR,,0.01,WeatherDisplay:10.37,2013-03-04 06:27:00,
2013-03-03 22:28:00,56.0,55.4,30.02,SW,220,9.5,11.5,98,0.00,CLR,,0.01,WeatherDisplay:10.37,2013-03-04 06:28:00,
2013-03-03 22:32:00,56.0,55.7,30.02,SW,229,8.6,11.5,99,0.00,CLR,,0.01,WeatherDisplay:10.37,2013-03-04 06:32:00,
2013-03-03 22:33:00,56.0,55.7,30.02,SW,218,8.1,11.5,99,0.00,CLR,,0.01,WeatherDisplay:10.37,2013-03-04 06:33:00,
2013-03-03 22:37:00,56.0,55.7,30.02,SW,214,10.4,12.7,99,0.00,CLR,,0.01,WeatherDisplay:10.37,2013-03-04 06:37:00,
2013-03-03 22:39:00,55.9,55.6,30.02,SSW,213,9.1,11.5,99,0.00,CLR,,0.01,WeatherDisplay:10.37,2013-03-04 06:39:00,
2013-03-03 22:42:00,55.9,55.6,30.02,SW,215,9.3,11.5,99,0.00,CLR,,0.01,WeatherDisplay:10.37,2013-03-04 06:42:00,
2013-03-03 22:44:00,56.0,55.4,30.02,SW,217,10.1,11.5,98,0.00,CLR,,0.01,WeatherDisplay:10.37,2013-03-04 06:44:00,
2013-03-03 22:47:00,55.9,55.6,30.02,SW,225,7.5,8.1,99,0.00,CLR,,0.01,WeatherDisplay:10.37,2013-03-04 06:47:00,
2013-03-03 22:49:00,56.0,55.7,30.02,SSW,202,8.5,9.2,99,0.00,CLR,,0.01,WeatherDisplay:10.37,2013-03-04 06:49:00,
2013-03-03 22:52:00,56.0,55.7,30.02,SW,217,10.1,11.5,99,0.00,CLR,,0.01,WeatherDisplay:10.37,2013-03-04 06:52:00,
2013-03-03 22:54:00,55.9,55.6,30.01,SW,218,7.2,10.4,99,0.00,CLR,,0.01,WeatherDisplay:10.37,2013-03-04 06:54:00,
2013-03-03 22:57:00,55.9,55.3,30.02,SW,218,6.3,10.4,98,0.00,CLR,,0.01,WeatherDisplay:10.37,2013-03-04 06:57:00,
2013-03-03 22:58:00,55.9,55.3,30.01,SW,224,8.3,11.5,98,0.00,CLR,,0.01,WeatherDisplay:10.37,2013-03-04 06:58:00,
2013-03-03 22:59:00,56.0,55.4,30.02,SW,221,10.1,11.5,98,0.00,CLR,,0.01,WeatherDisplay:10.37,2013-03-04 06:59:00,
2013-03-03 23:02:00,56.0,55.4,30.02,SW,216,9.8,11.5,98,0.00,CLR,,0.01,WeatherDisplay:10.37,2013-03-04 07:02:00,
2013-03-03 23:03:00,56.0,55.4,30.02,SW,227,9.5,11.5,98,0.00,CLR,,0.01,WeatherDisplay:10.37,2013-03-04 07:03:00,
2013-03-03 23:05:00,56.0,55.4,30.02,SW,221,8.7,10.4,98,0.00,CLR,,0.01,WeatherDisplay:10.37,2013-03-04 07:05:00,
2013-03-03 23:08:00,56.0,55.4,30.01,WSW,237,8.4,11.5,98,0.00,CLR,,0.01,WeatherDisplay:10.37,2013-03-04 07:08:00,
2013-03-03 23:10:00,56.0,55.4,30.01,SW,217,8.0,11.5,98,0.00,CLR,,0.01,WeatherDisplay:10.37,2013-03-04 07:10:00,
2013-03-03 23:13:00,56.1,55.5,30.01,SW,216,6.8,9.2,98,0.00,CLR,,0.01,WeatherDisplay:10.37,2013-03-04 07:13:00,
2013-03-03 23:15:00,56.1,55.5,30.02,SW,224,7.3,10.4,98,0.00,CLR,,0.01,WeatherDisplay:10.37,2013-03-04 07:15:00,
2013-03-03 23:18:00,56.1,55.5,30.02,SW,220,6.9,10.4,98,0.00,CLR,,0.01,WeatherDisplay:10.37,2013-03-04 07:18:00,
2013-03-03 23:19:00,56.1,55.5,30.02,SW,216,6.8,9.2,98,0.00,CLR,,0.01,WeatherDisplay:10.37,2013-03-04 07:19:00,
2013-03-03 23:20:00,56.1,55.5,30.02,SW,219,7.9,9.2,98,0.00,CLR,,0.01,WeatherDisplay:10.37,2013-03-04 07:20:00,
2013-03-03 23:23:00,56.2,55.6,30.02,SW,216,8.5,10.0,98,0.00,CLR,,0.01,WeatherDisplay:10.37,2013-03-04 07:23:00,
2013-03-03 23:24:00,56.2,55.6,30.02,SW,217,8.7,11.5,98,0.00,CLR,,0.01,WeatherDisplay:10.37,2013-03-04 07:24:00,
2013-03-03 23:25:00,56.2,55.6,30.02,SW,216,9.0,11.5,98,0.00,CLR,,0.01,WeatherDisplay:10.37,2013-03-04 07:25:00,
2013-03-03 23:28:00,56.3,55.7,30.02,SW,223,8.8,11.5,98,0.00,CLR,,0.01,WeatherDisplay:10.37,2013-03-04 07:28:00,
2013-03-03 23:29:00,56.3,55.7,30.02,SW,221,9.5,11.5,98,0.00,CLR,,0.01,WeatherDisplay:10.37,2013-03-04 07:29:00,
2013-03-03 23:30:00,56.3,55.7,30.02,SW,219,8.2,11.5,98,0.00,CLR,,0.01,WeatherDisplay:10.37,2013-03-04 07:30:00,
2013-03-03 23:34:00,56.3,55.7,30.02,SW,219,6.5,9.2,98,0.00,CLR,,0.01,WeatherDisplay:10.37,2013-03-04 07:34:00,
2013-03-03 23:35:00,56.3,55.7,30.02,South,182,6.4,10.4,98,0.00,CLR,,0.01,WeatherDisplay:10.37,2013-03-04 07:35:00,
2013-03-03 23:39:00,56.2,55.6,30.02,SSW,203,5.2,9.2,98,0.00,CLR,,0.01,WeatherDisplay:10.37,2013-03-04 07:39:00,
2013-03-03 23:40:00,56.2,55.4,30.02,SSW,204,5.0,9.2,97,0.00,CLR,,0.01,WeatherDisplay:10.37,2013-03-04 07:40:00,
2013-03-03 23:44:00,56.2,55.4,30.02,South,183,4.7,6.9,97,0.00,CLR,,0.01,WeatherDisplay:10.37,2013-03-04 07:44:00,
2013-03-03 23:45:00,56.2,55.4,30.02,SSW,197,4.5,6.9,97,0.00,CLR,,0.01,WeatherDisplay:10.37,2013-03-04 07:45:00,
2013-03-03 23:46:00,56.1,55.3,30.02,SSW,211,5.3,9.2,97,0.00,CLR,,0.01,WeatherDisplay:10.37,2013-03-04 07:46:00,
2013-03-03 23:49:00,56.1,55.3,30.02,SW,214,4.8,10.4,97,0.00,CLR,,0.01,WeatherDisplay:10.37,2013-03-04 07:49:00,
2013-03-03 23:50:00,56.1,55.3,30.02,SSW,209,4.2,7.0,97,0.00,CLR,,0.01,WeatherDisplay:10.37,2013-03-04 07:50:00,
2013-03-03 23:51:00,56.1,55.3,30.02,SSW,207,5.0,9.2,97,0.00,CLR,,0.01,WeatherDisplay:10.37,2013-03-04 07:51:00,
2013-03-03 23:54:00,56.1,55.0,30.02,SSW,195,3.8,5.8,96,0.00,CLR,,0.01,WeatherDisplay:10.37,2013-03-04 07:54:00,
2013-03-03 23:55:00,56.0,54.9,30.02,SSW,193,4.0,5.8,96,0.00,CLR,,0.01,WeatherDisplay:10.37,2013-03-04 07:55:00,
2013-03-03 23:56:00,56.0,54.9,30.02,SSW,197,5.6,6.9,96,0.00,CLR,,0.01,WeatherDisplay:10.37,2013-03-04 07:56:00,
2013-03-03 23:59:00,56.0,54.9,30.02,SSW,195,3.9,6.9,96,0.00,CLR,,0.01,WeatherDisplay:10.37,2013-03-04 07:59:00,